GFSNW_850_spd_051.txt.gz
Wind_Speed
26 26 26 27 28 30 28 9 3 13 28 4 4 6 4 2 12 3 2 5 5 16 17 10 10 14 2 14 12 13 8 3 5 11 4 13 16 14 14 5 7 7 9 12
24 25 26 27 28 26 32 6 4 13 15 3 5 3 3 1 6 2 4 3 2 16 13 8 6 10 7 11 12 13 10 5 3 4 3 7 11 15 16 16 14 17 10 11
23 24 25 26 27 26 20 3 1 4 6 7 6 7 1 2 2 3 3 7 10 14 11 3 10 9 4 10 10 7 13 4 9 5 4 7 5 13 17 16 10 17 23 33
23 23 24 24 25 25 15 6 2 5 3 7 7 8 4 8 4 3 2 4 4 14 6 8 7 9 11 8 7 6 6 6 12 15 15 15 13 13 16 16 22 16 30 24
22 22 22 22 23 22 10 7 5 7 2 12 10 4 5 4 5 2 2 6 9 4 6 2 9 9 8 6 9 8 4 4 7 12 16 15 18 22 22 21 24 21 26 29
22 20 20 19 21 19 9 18 15 5 3 5 4 4 8 12 7 4 5 4 4 5 7 6 7 6 5 7 9 10 6 3 2 4 8 7 11 16 13 10 7 8 10 17
20 18 17 17 18 12 15 17 11 4 2 4 7 4 7 9 5 5 5 4 1 6 10 10 7 4 3 3 4 7 5 9 4 5 11 5 5 1 5 10 14 14 16 17
16 17 17 17 15 10 13 16 4 3 3 6 8 8 7 8 6 3 5 4 3 11 6 2 2 2 1 6 8 9 9 4 3 3 6 12 2 2 3 4 4 4 7 7
15 14 16 15 12 12 11 10 6 4 3 5 7 6 8 6 6 5 4 4 12 4 2 1 3 3 4 4 3 11 9 9 4 3 4 3 6 5 6 4 3 5 7 8
18 14 15 12 11 13 11 11 6 6 5 4 9 7 8 4 6 2 4 5 5 4 3 3 3 4 3 5 6 5 4 3 8 9 4 8 6 4 6 4 3 2 3 10
17 13 14 11 10 11 13 13 5 9 5 4 4 2 4 6 9 3 7 4 2 3 4 3 4 5 6 5 5 8 10 7 5 6 5 7 3 6 3 4 6 4 7 3
18 12 12 13 10 10 10 10 11 13 8 4 5 7 6 7 2 3 8 1 3 3 2 3 4 4 3 8 3 11 7 9 5 9 5 6 3 8 11 12 10 8 7 5
18 15 13 15 15 11 8 12 12 8 4 4 3 5 9 10 10 9 5 5 7 5 6 2 3 6 4 5 9 8 9 11 6 2 6 12 13 10 10 9 7 7 7 6
19 18 13 12 14 10 9 10 7 6 4 3 1 4 5 7 10 13 15 11 12 10 6 4 3 4 2 3 2 6 1 10 9 11 15 18 6 5 7 3 2 3 2 2
21 17 12 12 13 9 10 9 8 7 5 3 5 8 6 5 6 9 12 15 12 8 3 4 3 4 3 2 2 6 7 7 5 4 5 4 4 3 1 2 2 2 4 7
18 11 9 10 7 5 3 2 5 8 5 3 2 4 5 5 6 8 6 9 9 9 6 3 5 3 3 3 3 5 11 15 15 12 4 1 0 2 1 1 2 4 6 9
14 9 9 9 7 8 7 2 4 9 6 2 3 2 3 6 5 3 5 9 7 7 4 3 3 2 3 3 5 5 0 4 8 11 7 7 4 1 2 3 5 7 10 11
12 8 8 9 7 7 10 7 10 8 4 3 2 3 2 2 2 3 2 4 4 9 2 2 2 3 4 4 9 10 10 9 9 7 8 7 5 3 5 7 9 11 13 13
10 7 11 9 5 6 4 4 4 12 5 2 2 2 2 1 3 3 2 2 2 2 2 2 1 2 5 6 6 6 3 3 5 4 7 7 7 7 10 11 12 11 13 15
7 7 1 3 4 8 7 4 5 5 4 4 2 2 2 1 1 1 2 0 0 1 0 2 2 4 16 17 7 5 5 7 7 4 4 9 12 12 13 13 11 10 15 18
3 2 1 4 8 4 2 2 2 4 2 3 2 3 3 2 2 1 1 0 0 1 2 2 2 3 0 5 8 9 13 12 8 8 7 5 7 13 16 14 14 17 19 21
3 2 1 4 2 1 1 1 0 2 2 1 2 1 2 2 1 1 0 0 1 1 3 2 2 1 5 8 9 9 6 6 7 8 7 7 10 15 18 19 19 18 21 23
1 1 1 1 1 2 3 4 2 1 2 4 4 2 2 1 1 1 0 1 1 2 1 2 3 3 7 7 7 6 4 5 7 7 7 7 11 15 18 21 22 23 25 26
2 1 2 2 3 2 1 1 1 1 2 4 4 4 2 2 1 1 1 1 1 1 2 3 3 11 12 10 9 7 4 3 4 5 5 7 12 16 18 20 23 26 28 29
1 1 3 4 2 2 3 2 1 0 1 2 2 3 2 1 0 0 1 2 3 3 1 3 11 16 11 10 10 6 4 3 4 4 5 9 14 16 17 19 24 27 29 30
2 3 2 1 1 3 3 2 1 1 1 1 1 1 2 2 1 2 5 2 1 2 3 12 18 13 10 11 10 8 5 3 4 5 7 11 15 17 20 23 24 25 27 27
3 2 3 0 1 1 2 1 1 2 0 1 1 3 2 1 2 3 2 1 2 8 11 13 13 13 13 12 10 8 6 4 5 6 9 13 16 19 22 25 26 26 28 27

GFSNW_850_spd_054.txt.gz
Wind_Speed
27 26 27 27 28 28 30 9 3 5 18 2 3 2 3 2 3 4 5 2 6 12 14 9 8 11 3 22 12 12 3 3 4 8 8 15 12 6 7 3 4 4 1 6
26 26 26 26 27 27 23 7 4 10 1 1 2 2 2 4 2 5 3 2 2 13 9 6 5 9 2 18 12 12 7 3 3 2 6 10 8 12 11 8 4 7 2 6
26 25 25 25 26 25 12 3 1 1 3 5 4 3 2 2 5 5 5 3 9 15 7 12 10 8 3 7 7 10 11 3 5 1 3 4 3 9 14 13 4 6 16 22
25 25 23 24 24 20 10 5 2 2 3 5 8 1 5 2 2 1 4 3 8 9 3 12 7 9 9 5 5 3 4 3 6 8 8 9 7 10 11 13 16 13 21 18
23 23 21 21 22 17 9 4 4 6 4 10 8 1 4 2 6 4 1 5 10 5 4 1 12 13 8 6 5 5 2 2 5 6 10 12 12 14 16 17 17 16 20 26
21 20 20 19 19 17 7 14 12 3 8 2 2 2 3 4 4 6 8 8 6 12 9 15 16 7 10 8 8 5 4 2 2 3 7 5 6 13 16 14 14 17 17 21
20 18 17 18 15 12 13 13 8 4 3 1 2 5 2 5 1 4 3 4 5 6 11 12 13 14 10 4 4 9 6 4 2 4 5 3 3 6 3 8 10 12 11 18
22 18 18 16 12 12 11 12 5 4 3 9 3 5 1 3 5 6 8 9 12 12 7 2 2 2 1 3 3 3 2 3 2 2 3 7 3 4 5 4 3 12 15 15
22 21 18 14 10 12 10 9 5 1 4 2 9 4 4 0 3 3 4 8 11 5 2 0 2 3 4 4 3 4 4 4 1 3 2 3 1 5 5 5 2 6 3 5
19 20 16 15 10 9 10 6 7 2 3 6 7 2 2 4 3 2 6 4 2 1 2 1 2 2 2 4 6 5 4 3 6 4 3 7 5 7 10 1 1 2 6 5
20 18 18 13 12 9 9 8 6 6 4 11 2 1 2 1 2 1 4 3 1 2 2 2 3 3 4 3 6 7 8 7 4 5 3 8 5 6 2 2 5 6 5 4
20 20 17 14 13 12 8 6 6 9 7 7 7 5 5 3 2 3 8 2 3 3 2 1 3 3 2 5 2 5 5 6 5 6 5 10 5 5 12 12 7 9 6 3
20 20 19 17 13 12 11 8 6 8 5 8 4 5 8 9 7 5 4 3 6 5 5 2 3 5 3 3 5 6 5 10 3 2 8 13 23 17 9 8 6 8 8 7
21 20 20 15 13 11 11 9 6 6 5 3 1 3 6 6 8 10 12 9 8 7 10 5 3 3 3 2 2 2 2 7 6 5 11 22 5 4 5 4 3 4 3 1
23 22 16 13 12 10 11 11 9 9 4 3 6 8 7 5 5 6 10 12 13 8 4 4 3 5 3 3 3 3 5 5 4 4 0 3 2 4 4 2 4 2 3 7
23 18 13 10 10 8 3 2 5 9 9 2 2 4 4 3 4 5 8 6 9 8 6 3 5 8 2 3 3 4 10 18 16 3 4 1 1 2 2 1 1 3 5 8
20 12 10 9 8 9 8 3 4 10 7 2 3 3 2 4 5 4 6 8 7 7 5 5 3 3 3 2 3 3 3 1 2 6 8 6 7 4 2 2 4 6 8 11
12 7 7 8 9 7 11 5 12 13 4 3 2 2 2 2 2 3 4 5 8 11 4 2 2 3 3 3 5 10 6 6 6 6 7 9 5 6 4 5 7 9 11 13
8 7 7 10 7 6 3 7 10 9 5 4 2 1 2 2 3 3 3 3 2 3 3 2 1 2 4 4 4 8 5 4 8 6 6 7 7 7 7 9 10 11 13 13
5 5 1 3 5 6 5 7 5 7 6 5 2 3 2 2 1 1 1 1 1 1 1 2 2 3 15 12 10 10 10 8 6 4 3 4 10 11 11 11 11 10 13 15
2 2 2 2 8 5 4 3 4 4 2 4 3 3 2 2 1 1 2 1 1 1 0 1 1 2 2 11 12 12 9 9 9 8 7 6 5 10 13 14 12 13 15 17
5 4 2 5 4 3 2 1 1 2 2 2 2 2 2 3 2 1 1 1 1 1 2 1 2 2 15 18 15 14 10 5 3 5 5 4 4 6 13 14 14 16 17 19
2 2 2 2 2 2 3 5 1 1 1 2 4 1 2 2 1 0 1 1 1 2 1 2 1 11 20 18 17 14 10 5 2 3 3 2 5 8 12 13 15 16 20 23
2 1 2 3 3 2 1 1 2 3 3 1 1 3 0 2 1 1 1 0 1 1 1 2 2 17 21 19 19 16 14 9 6 5 3 2 7 10 13 15 17 20 23 26
2 2 2 2 2 4 2 3 2 1 0 1 1 1 1 1 0 0 1 1 2 2 1 1 14 20 18 19 20 18 15 11 8 5 3 3 7 11 13 15 19 22 25 27
3 3 2 3 2 2 2 2 2 1 1 2 1 0 1 2 1 1 3 1 2 0 2 13 18 18 16 17 16 14 13 10 7 5 3 3 6 10 14 17 18 21 23 26
3 3 5 2 2 2 5 4 3 1 2 1 1 2 4 1 1 2 1 1 1 7 12 15 16 18 19 17 15 14 12 10 7 5 3 4 7 11 15 18 21 22 23 24

GFSNW_850_spd_057.txt.gz
Wind_Speed
27 27 28 28 28 30 25 9 2 7 9 2 0 1 5 8 7 10 6 3 6 6 5 6 4 9 1 16 6 6 1 4 3 5 4 6 6 5 6 4 5 3 3 6
26 26 27 27 27 25 19 9 5 4 9 3 2 1 5 2 3 6 2 4 3 9 5 5 2 7 4 23 7 8 4 1 3 2 1 2 5 8 7 5 1 5 3 6
22 24 26 24 26 20 10 4 2 3 2 1 3 3 2 4 9 5 6 2 14 6 4 6 5 7 6 5 5 13 5 3 4 5 3 3 5 11 16 10 4 3 7 16
21 21 23 23 24 17 8 6 3 3 3 3 4 2 3 3 3 5 6 12 11 6 4 11 7 7 5 6 6 4 4 2 2 4 6 5 6 8 12 14 17 9 3 12
20 19 19 21 21 17 8 5 4 5 6 9 2 3 4 3 4 7 4 9 7 12 3 4 6 7 3 3 1 3 2 1 2 4 8 8 10 12 12 14 15 20 17 23
19 18 15 17 16 19 7 11 11 5 6 3 2 3 4 3 4 7 10 12 10 13 10 18 12 12 11 10 6 3 4 2 1 4 3 5 5 14 14 9 11 17 16 21
19 20 13 13 11 13 13 10 9 5 3 2 1 4 6 2 2 2 7 12 5 4 11 13 14 17 16 8 6 8 5 2 1 4 3 2 6 4 6 9 8 10 12 15
17 18 15 11 9 10 11 10 6 4 3 6 5 5 3 3 7 7 8 8 10 8 6 3 3 4 4 2 2 5 4 3 1 1 2 6 0 3 5 4 4 6 12 12
18 16 15 10 9 7 10 6 7 4 4 4 7 3 3 1 3 2 5 9 7 4 3 2 3 3 3 3 2 2 3 4 2 1 2 4 1 3 8 5 3 6 5 6
17 17 14 12 8 8 8 4 8 4 4 4 4 2 2 4 2 2 4 3 1 3 1 1 1 2 3 4 6 5 3 3 5 4 2 7 7 4 7 1 3 3 9 8
17 16 16 14 8 9 9 8 4 5 4 12 4 3 1 1 0 3 4 3 1 2 1 2 2 2 3 3 6 6 7 5 4 5 4 7 5 3 1 4 6 6 11 11
17 15 15 14 13 10 10 9 6 8 8 8 6 7 5 1 2 4 6 1 3 5 2 0 2 2 2 3 3 3 4 6 5 7 6 7 9 12 12 21 14 7 8 8
17 17 14 16 12 10 11 12 8 8 5 8 5 4 7 5 6 5 4 4 6 6 6 3 2 4 1 2 4 6 4 9 3 2 6 11 19 20 14 9 7 7 7 7
19 18 17 16 11 10 11 13 8 8 5 3 2 2 4 5 7 10 11 8 7 7 8 4 2 2 2 3 3 2 5 7 6 5 8 15 8 3 5 5 5 5 4 4
19 18 16 9 8 10 12 13 11 12 5 3 7 9 8 7 6 7 9 11 11 7 4 3 4 3 3 3 1 4 4 6 4 5 9 4 3 3 4 6 5 3 1 3
22 17 13 11 7 9 7 3 8 13 16 3 2 2 4 4 2 6 7 8 13 9 6 3 5 8 5 2 3 5 14 16 17 7 7 6 5 5 6 5 4 2 3 5
16 12 7 10 9 13 9 3 4 9 10 3 3 3 2 5 5 4 5 9 5 5 5 6 3 3 5 2 3 5 7 4 2 4 4 6 10 7 6 5 3 4 5 7
14 7 3 10 10 7 12 5 10 12 6 3 2 2 3 5 3 2 3 3 7 7 3 4 3 4 4 3 5 9 4 3 1 5 7 10 6 6 6 5 5 7 9 11
5 8 5 9 7 6 4 5 10 14 5 3 2 1 2 4 3 3 4 3 2 5 3 2 0 1 3 2 6 10 10 8 8 7 5 5 7 9 9 9 9 9 12 13
6 4 2 2 4 5 7 4 8 9 6 5 2 4 2 3 3 2 1 2 1 1 0 1 2 2 4 18 13 12 14 13 11 11 7 6 9 12 12 12 10 11 11 14
2 2 2 2 6 5 4 5 5 7 2 5 4 4 2 2 2 1 2 1 1 1 1 1 1 1 5 21 18 15 13 12 11 12 13 12 10 9 12 12 12 12 12 14
3 5 5 3 4 3 2 2 1 2 3 3 2 2 3 3 2 1 1 1 0 1 1 0 1 1 16 18 20 18 13 9 5 5 7 7 6 6 11 13 13 13 13 15
3 2 2 3 3 2 3 4 2 2 3 2 1 1 1 1 1 0 1 1 1 1 0 1 2 9 17 18 19 16 13 9 6 3 3 4 5 4 8 12 11 13 16 17
2 3 3 3 3 3 2 2 2 2 2 1 0 1 1 1 0 0 1 1 0 1 1 2 2 16 19 17 17 17 16 12 10 7 4 0 3 7 12 13 13 16 20 22
3 2 3 3 2 2 2 3 4 3 2 2 1 1 0 1 0 1 0 1 0 0 1 1 13 16 17 18 18 16 16 13 10 8 5 1 3 6 9 11 14 17 20 20
2 3 3 2 1 1 2 2 3 2 1 1 1 1 1 2 1 1 3 1 2 2 1 8 13 14 16 17 17 16 15 12 11 8 5 2 2 5 7 10 13 17 19 21
3 3 5 2 1 1 3 3 3 1 1 1 1 2 3 2 1 2 1 3 2 2 4 9 9 13 17 19 18 17 16 14 11 9 6 3 1 3 7 12 15 17 19 21

GFSNW_850_spd_060.txt.gz
Wind_Speed
26 25 26 26 27 26 22 8 2 8 9 2 1 2 4 8 5 3 6 4 6 4 5 4 3 6 3 8 6 4 2 4 3 4 1 6 5 6 5 4 4 1 3 7
26 24 24 25 26 21 16 5 4 4 11 2 3 4 4 3 1 4 3 1 3 3 4 5 2 5 5 15 5 6 3 2 3 3 0 2 4 5 4 3 3 5 4 5
22 25 23 24 23 17 7 4 3 5 4 2 2 4 3 4 4 5 7 1 8 5 5 4 4 3 5 10 6 9 4 2 4 5 3 4 4 6 10 6 3 4 8 8
23 24 21 22 20 13 4 5 2 3 4 3 3 2 5 5 3 3 10 5 6 6 3 5 4 3 4 7 6 4 3 2 2 3 5 2 5 5 11 12 13 7 2 12
21 24 19 18 18 15 10 4 4 6 5 11 3 1 4 6 6 7 6 7 5 7 3 3 6 7 3 2 4 3 3 1 3 4 5 6 6 9 10 14 15 16 18 24
20 20 20 14 14 15 8 9 10 4 7 4 2 2 4 9 8 13 11 9 9 13 5 12 12 8 9 8 5 3 3 3 0 4 4 5 6 10 14 9 10 16 15 21
21 17 18 14 11 12 10 11 8 4 3 3 3 5 5 4 4 2 4 7 3 3 6 19 18 19 14 8 6 6 4 3 1 3 3 1 6 2 4 11 10 12 16 18
19 19 15 15 9 8 9 7 5 3 3 5 5 8 2 4 8 4 6 10 8 3 5 4 4 3 3 4 3 4 4 2 1 1 3 7 3 3 5 6 4 5 9 11
15 17 17 13 10 7 8 4 6 3 4 2 5 4 5 1 2 4 3 6 7 3 3 2 3 3 3 3 2 2 4 3 2 2 2 4 3 2 6 3 3 4 5 6
13 17 16 15 12 8 7 4 5 3 4 6 3 3 3 2 3 2 1 1 4 5 2 2 2 1 4 4 5 4 3 2 4 3 2 7 8 6 6 1 4 3 8 13
12 14 16 14 11 11 9 6 3 2 4 15 7 5 4 3 2 2 3 2 2 2 2 2 2 1 2 3 4 5 6 5 3 3 3 8 5 2 3 3 9 15 17 16
14 13 16 15 12 9 10 9 7 7 8 9 9 10 7 5 2 1 6 1 2 3 2 1 1 1 1 2 2 1 4 6 4 7 6 7 6 7 16 18 20 15 11 10
17 13 16 16 15 13 12 13 8 9 7 11 8 7 9 9 6 5 3 4 5 5 4 3 1 3 2 3 4 4 4 8 3 2 5 12 22 20 21 19 12 10 9 8
17 17 17 16 16 13 13 14 9 9 5 4 2 3 4 6 8 11 11 6 6 5 7 3 1 2 5 3 2 2 5 8 5 5 8 15 11 4 4 7 9 10 8 5
16 18 19 15 11 10 14 15 13 13 6 4 7 6 7 8 7 8 10 12 10 6 4 2 3 3 2 3 1 4 7 7 4 5 9 6 7 4 7 8 9 8 6 4
17 15 14 11 13 10 9 4 10 14 16 4 2 2 4 4 5 4 8 11 13 9 6 4 4 6 5 3 3 5 8 12 14 9 10 11 10 9 10 10 9 6 4 3
17 15 15 11 12 14 11 4 5 12 12 3 3 3 2 6 6 4 7 10 7 7 6 5 4 4 9 2 3 6 18 15 7 5 6 7 11 8 9 9 7 4 3 4
12 13 6 9 12 8 12 9 9 12 9 4 2 3 2 6 5 3 5 3 4 6 3 4 4 5 6 3 3 9 12 11 3 10 8 9 9 8 8 7 6 5 4 6
3 5 5 7 7 5 7 4 10 13 5 3 2 2 3 4 3 4 5 4 2 4 2 2 2 3 2 5 12 13 15 12 17 16 12 9 8 9 10 10 9 8 7 9
3 4 2 2 3 6 6 5 7 7 6 5 3 3 2 4 4 3 1 2 2 2 2 2 3 0 7 13 13 13 16 16 15 16 14 10 11 12 13 13 11 9 9 11
2 2 2 1 5 5 4 5 5 6 3 6 6 8 3 3 2 2 3 1 1 2 1 1 2 2 4 15 15 14 13 13 12 13 16 15 16 15 12 12 12 11 11 11
2 6 8 5 5 5 3 3 2 3 3 3 2 3 4 3 3 2 2 1 1 2 1 1 1 1 12 15 18 16 13 13 10 8 9 9 10 10 9 9 11 11 10 11
2 3 2 3 3 3 4 5 3 2 3 3 2 1 1 2 2 1 1 2 1 1 1 1 2 7 15 17 18 16 13 11 9 7 5 4 4 3 3 6 9 9 10 12
3 3 3 3 3 3 3 2 2 2 2 4 2 1 0 1 1 1 2 0 0 1 1 1 1 12 15 15 15 15 16 14 11 10 7 3 1 3 5 6 7 10 13 15
3 2 3 3 1 1 1 4 3 3 3 3 2 1 0 1 1 1 1 1 1 1 2 1 6 8 11 14 15 15 15 14 12 10 7 4 2 3 4 8 9 11 13 14
3 4 3 2 1 1 1 3 3 2 2 2 2 1 1 2 1 1 3 1 3 3 2 0 3 7 11 14 15 14 13 13 12 10 8 5 3 4 4 7 10 12 13 15
3 3 4 4 3 1 1 2 2 1 1 1 1 2 2 1 1 2 1 1 2 4 4 1 2 5 9 13 14 14 13 13 12 10 8 6 4 4 5 7 9 11 12 14

GFSNW_850_spd_063.txt.gz
Wind_Speed
29 29 28 28 29 26 18 7 2 6 13 4 2 2 6 7 2 1 2 4 7 4 5 4 3 4 3 4 5 4 2 5 3 2 1 4 4 5 5 4 4 1 3 6
28 29 27 25 26 22 16 4 6 6 10 2 3 4 4 2 3 4 5 3 4 5 3 5 4 4 4 9 4 6 4 2 3 2 2 1 3 4 4 4 3 4 4 5
28 27 28 23 23 18 10 5 4 5 5 1 4 5 4 6 6 5 2 3 5 5 5 5 4 3 4 12 5 5 4 3 4 5 3 4 4 4 6 5 2 3 6 6
27 24 28 22 21 15 6 5 2 4 4 4 6 3 3 4 2 3 10 5 5 5 3 3 4 3 3 5 6 3 3 2 2 1 2 2 4 4 7 8 10 6 3 9
25 23 23 21 20 13 10 5 4 6 5 11 6 3 4 7 5 6 5 5 6 5 4 0 5 6 2 3 3 3 2 1 3 3 4 3 4 7 8 11 10 13 16 21
21 25 19 20 17 19 8 12 10 5 7 5 3 5 7 10 6 12 12 6 5 10 5 5 13 10 5 6 5 3 3 3 2 3 4 4 5 7 11 6 6 11 10 19
18 22 20 17 14 15 13 10 8 5 4 3 3 6 8 11 7 3 4 9 3 2 2 15 20 20 15 11 7 3 4 3 2 1 4 1 5 2 5 11 9 12 13 16
17 19 20 17 13 10 11 8 6 5 3 7 6 9 3 11 8 4 4 8 5 4 4 4 4 3 3 5 6 5 3 3 2 2 2 6 4 2 5 4 3 5 11 12
19 14 16 18 13 11 10 4 7 4 5 2 7 4 5 2 3 4 3 6 8 3 3 3 2 3 3 3 2 4 5 6 3 1 2 3 3 2 1 2 3 1 4 6
17 16 14 16 16 9 12 8 7 5 4 5 5 2 3 4 2 1 2 3 4 6 2 2 2 1 4 4 5 3 3 1 3 2 2 6 6 7 5 1 2 4 7 14
17 16 13 15 16 8 12 10 6 4 5 15 8 5 3 6 3 1 2 2 3 3 3 1 1 1 1 2 4 5 6 5 3 3 3 6 4 1 3 1 11 14 20 15
16 16 14 14 15 11 11 13 5 8 8 10 12 15 14 12 4 3 2 1 2 3 3 1 1 1 1 2 2 1 3 5 4 7 6 6 5 10 11 18 17 17 13 10
16 15 16 16 17 15 12 14 12 9 7 14 9 7 6 10 5 4 2 2 1 2 2 4 1 2 2 2 3 2 4 5 2 1 4 10 19 19 24 18 17 12 10 9
16 17 16 18 16 15 13 16 13 9 6 4 5 2 6 8 9 10 8 6 2 2 3 2 1 2 4 2 2 3 4 7 4 5 9 19 13 10 3 2 7 11 10 7
17 17 18 18 15 12 11 16 16 12 8 4 8 6 8 8 8 9 10 11 9 5 3 2 3 2 1 1 1 4 8 6 4 5 8 6 10 7 8 10 10 11 10 8
18 17 17 15 13 10 10 5 12 17 15 4 2 3 5 6 7 8 8 9 11 9 5 4 5 6 4 2 3 4 3 4 10 9 16 14 15 15 12 11 12 10 8 6
18 16 19 17 12 15 13 4 4 14 15 4 3 3 3 8 7 5 4 7 7 8 5 6 3 6 9 2 3 2 11 13 4 4 9 6 6 8 10 11 9 7 6 4
13 13 13 5 13 11 16 18 7 16 12 4 2 2 2 7 4 4 5 4 4 6 4 3 3 7 5 4 2 11 14 15 6 9 11 10 11 9 9 8 8 7 6 5
10 5 4 4 5 5 5 10 3 15 6 3 2 2 3 6 3 5 5 5 2 3 2 3 2 3 4 1 7 10 12 11 19 23 20 15 13 11 10 11 11 10 8 7
5 6 3 3 3 7 3 10 8 9 6 5 3 3 2 5 4 3 2 3 2 2 3 3 3 1 3 4 9 12 14 14 15 19 18 12 12 12 15 16 13 12 10 9
4 2 2 2 8 5 4 5 6 7 3 6 6 10 3 5 3 1 4 2 1 2 1 2 2 2 2 10 11 11 11 12 13 13 16 16 17 17 15 15 13 11 11 11
5 7 6 4 5 5 3 3 2 3 3 3 2 5 6 3 4 2 2 1 1 3 2 2 2 1 6 10 12 12 11 11 11 9 11 11 12 12 12 11 9 9 9 11
2 4 3 3 3 3 3 3 2 2 2 2 3 1 2 2 2 1 1 2 2 2 2 1 1 3 8 11 12 12 10 10 8 8 7 6 4 5 3 2 4 6 9 10
3 3 3 3 3 2 1 2 2 2 1 4 4 2 1 0 0 1 2 1 0 1 2 2 1 5 9 11 12 12 13 13 11 10 9 7 4 3 2 1 3 5 7 8
3 2 3 2 0 0 1 2 2 2 2 3 3 2 1 0 1 1 1 1 2 3 3 2 2 2 6 9 11 12 13 14 13 11 10 8 7 5 4 3 4 4 5 6
4 4 3 5 1 2 1 2 3 2 1 2 2 2 0 2 1 1 4 1 4 2 2 5 4 3 5 10 11 12 12 13 13 13 11 9 8 6 4 4 5 6 5 7
4 4 5 7 4 1 3 2 3 2 1 1 1 1 3 1 1 2 2 2 1 8 9 6 5 2 6 9 10 11 13 13 13 13 12 9 7 6 5 4 4 5 7 8

GFSNW_850_spd_066.txt.gz
Wind_Speed
28 30 29 27 27 26 23 9 3 10 17 3 2 2 8 6 5 3 3 3 6 4 3 5 4 3 2 2 3 4 1 4 4 2 2 3 3 5 4 3 4 2 3 5
27 30 27 25 25 21 19 12 6 7 12 3 4 5 3 2 4 5 6 4 5 3 4 5 4 3 4 3 4 5 4 3 4 2 2 2 3 3 4 4 3 4 4 4
26 29 26 24 23 18 13 6 4 6 6 1 2 4 5 5 5 3 3 4 6 6 6 6 3 3 4 1 4 9 5 3 4 5 3 3 3 4 6 5 3 3 5 4
25 26 26 24 22 15 12 7 3 4 4 5 7 2 2 3 5 4 11 6 6 3 3 3 3 3 3 6 4 4 3 3 2 1 2 2 4 5 8 7 5 6 3 6
22 24 28 23 21 11 12 5 4 7 6 14 7 6 8 10 5 5 5 5 5 5 4 2 5 6 3 2 4 3 3 2 2 2 3 4 4 7 9 9 5 9 9 18
21 22 24 21 19 17 9 12 11 5 8 6 4 6 7 8 3 10 11 3 5 10 6 2 11 12 7 6 5 2 3 4 2 3 3 3 4 7 9 5 5 7 7 10
20 20 20 22 17 14 13 13 8 5 4 5 5 9 8 10 5 5 6 12 4 2 1 4 18 21 17 13 7 2 4 3 2 1 3 1 4 3 5 10 7 10 9 12
19 19 16 19 18 13 10 9 7 4 3 8 6 14 7 9 9 5 4 8 4 2 3 4 3 3 3 4 6 6 4 3 2 2 2 6 1 1 4 3 2 6 7 9
15 18 18 14 17 12 9 4 7 4 5 1 8 6 5 3 3 4 4 5 7 2 3 3 2 2 2 2 2 5 6 5 3 1 1 2 3 0 1 2 1 1 4 4
14 16 16 14 14 13 11 8 6 6 4 6 7 3 4 4 2 0 3 5 5 5 2 2 2 1 3 3 5 3 2 1 3 2 2 6 5 5 3 2 2 9 10 17
17 14 15 14 12 12 13 11 7 6 5 16 16 9 5 6 4 1 3 2 3 3 3 2 1 2 2 2 3 4 5 5 3 3 1 5 2 1 3 3 5 8 19 13
17 15 14 13 14 13 12 13 8 8 8 10 14 19 21 16 8 4 3 1 1 2 3 0 1 1 1 2 1 1 2 5 4 7 5 5 4 6 10 13 12 20 17 13
18 16 15 15 14 15 15 16 11 11 11 21 13 8 7 10 7 7 3 1 2 0 1 4 2 1 3 2 2 2 3 4 2 1 2 6 15 16 20 19 15 14 11 12
18 15 16 15 16 17 15 15 12 10 7 5 6 1 6 9 9 8 7 5 2 1 1 1 1 2 5 2 2 3 4 6 4 4 8 15 2 11 6 8 7 9 12 11
17 19 19 16 18 17 16 15 16 14 11 4 9 7 8 9 9 9 9 10 8 4 2 2 2 1 2 0 0 3 5 6 4 4 5 3 18 18 11 12 12 11 12 11
19 19 18 18 16 14 9 5 13 20 16 5 3 3 5 9 10 10 10 9 8 5 3 3 4 3 4 2 3 4 2 2 5 5 10 15 18 16 12 12 10 11 10 9
19 18 19 18 18 16 12 4 4 16 17 5 3 3 4 8 8 7 7 6 4 5 4 4 5 6 8 2 4 3 4 5 5 4 9 3 3 9 13 12 11 10 9 7
18 14 9 13 4 14 13 18 17 13 14 6 2 2 2 10 5 5 7 3 3 5 4 3 2 5 6 4 2 2 6 10 6 11 11 13 15 14 11 10 10 11 10 8
15 8 5 6 3 4 4 8 11 15 8 4 2 1 2 7 5 5 5 6 2 3 2 3 3 3 4 1 1 5 8 8 14 18 19 14 10 12 12 11 11 13 13 10
10 7 5 4 3 6 7 6 8 10 8 5 3 3 2 6 6 4 3 4 2 2 3 4 3 3 4 1 4 7 9 10 12 17 17 21 19 16 17 18 17 16 14 12
5 3 3 3 5 5 5 5 5 7 3 6 6 9 3 6 2 3 5 2 2 2 2 2 3 2 1 4 7 8 9 9 11 13 16 18 19 22 19 16 15 15 13 13
8 10 13 3 5 5 3 3 3 4 3 5 3 6 9 4 5 2 3 2 2 4 2 2 2 1 2 6 8 9 9 10 11 10 12 13 14 15 15 15 14 12 10 11
4 3 3 3 4 3 3 2 2 1 1 1 3 1 3 3 3 2 1 3 3 3 2 2 1 3 2 6 8 8 7 9 8 7 7 7 7 6 7 6 5 6 8 9
3 3 4 3 3 3 1 1 1 0 1 1 2 2 1 2 2 1 2 1 1 1 1 4 3 4 3 6 8 9 10 11 10 9 7 7 6 5 3 2 3 3 5 7
4 3 4 2 2 2 3 2 1 1 2 1 1 2 1 0 0 2 1 2 3 4 3 2 9 7 5 7 8 10 11 12 14 13 11 9 8 7 6 3 2 2 2 3
4 5 3 4 3 2 2 3 3 3 1 1 1 1 1 2 1 1 4 2 4 2 2 9 11 8 5 4 5 8 10 12 12 13 13 12 10 8 6 6 4 2 3 3
4 4 6 8 6 5 4 2 3 2 2 1 1 2 4 1 1 2 3 3 1 6 11 11 9 6 4 5 7 8 10 11 11 11 12 12 11 9 7 6 5 4 4 5

GFSNW_850_spd_069.txt.gz
Wind_Speed
29 34 32 30 29 28 25 7 3 15 19 4 1 2 7 5 4 3 3 2 6 4 2 5 4 3 1 1 2 4 0 5 4 2 1 2 2 3 3 3 4 2 1 3
27 31 32 29 27 23 19 6 6 10 17 4 4 5 3 2 6 5 5 4 4 2 2 4 3 2 4 5 4 4 3 2 4 2 3 3 2 3 3 4 3 3 3 3
26 30 32 28 25 18 11 5 4 7 8 3 4 6 5 5 3 3 2 3 3 3 6 6 3 3 5 6 4 9 6 3 3 4 3 3 4 4 5 4 2 4 4 4
24 28 30 29 23 15 6 7 2 4 4 3 8 3 3 5 6 7 12 5 6 2 3 3 3 3 1 5 7 4 4 4 3 3 3 2 4 5 7 6 4 4 1 5
20 25 25 29 23 14 15 4 4 6 6 13 8 8 7 8 4 5 5 5 6 6 4 1 5 5 2 2 5 3 4 2 2 2 3 3 3 5 8 4 2 6 3 12
19 22 22 25 24 21 10 10 10 5 7 6 5 5 6 5 4 5 7 2 4 10 5 1 5 5 7 6 4 2 3 4 2 1 2 1 3 6 7 3 3 5 6 8
14 18 19 20 22 17 14 12 8 5 3 5 5 7 9 8 7 3 5 11 4 2 2 3 12 23 17 14 7 2 4 3 2 1 2 1 4 2 6 10 5 10 4 7
15 14 17 17 16 17 13 9 7 4 4 10 7 14 7 8 7 5 4 8 5 2 2 3 3 4 4 5 6 7 2 4 2 2 1 4 1 2 5 5 1 8 8 7
17 14 15 16 13 15 13 6 7 4 4 1 8 7 11 2 4 4 4 4 6 1 3 2 2 1 2 2 2 4 6 5 3 1 1 2 2 2 1 2 0 2 5 4
18 15 12 13 13 12 14 9 9 6 5 6 5 3 4 6 2 2 3 6 5 6 2 2 1 1 2 3 4 3 2 1 2 1 1 5 5 4 4 3 2 3 4 11
18 19 12 13 10 11 13 12 9 6 6 16 18 12 7 8 3 2 5 2 3 3 3 2 1 2 2 2 2 4 5 5 3 3 0 3 4 1 2 2 0 6 11 14
18 19 16 13 12 11 13 14 9 9 10 12 15 21 23 19 15 10 5 1 1 1 3 0 1 1 1 3 1 1 2 5 4 6 5 3 2 4 5 8 13 10 14 14
19 20 16 13 15 12 13 13 12 11 10 19 13 15 8 14 14 13 4 0 2 1 1 4 2 1 3 2 2 2 3 4 2 1 2 6 8 10 9 6 8 8 9 11
18 19 16 17 17 15 15 16 14 11 5 5 7 2 8 8 13 9 13 6 2 1 1 1 2 2 5 2 2 3 4 6 4 4 7 9 3 11 8 7 7 7 8 10
19 18 19 17 15 14 18 19 17 15 10 4 11 16 12 12 10 12 10 10 7 3 2 2 3 2 3 0 1 3 6 5 4 4 1 2 13 11 13 11 10 10 10 10
20 20 18 17 16 15 16 7 9 18 17 4 3 6 7 14 13 11 13 10 8 5 3 3 3 4 5 2 2 5 6 3 5 3 8 12 14 6 7 7 7 9 10 10
22 19 17 15 11 17 15 5 5 8 18 4 4 4 5 12 12 10 10 10 5 5 3 4 3 5 8 2 3 5 9 6 5 7 7 1 2 7 12 10 9 9 9 8
24 19 15 11 10 5 16 17 11 9 17 5 3 3 2 10 6 5 6 5 4 5 4 2 2 3 5 4 3 5 5 6 7 10 8 11 15 12 11 10 9 9 9 9
20 16 10 9 6 3 5 6 8 9 13 4 3 2 2 10 5 5 5 5 3 4 3 3 5 3 5 1 4 3 4 4 8 12 13 10 8 12 11 11 11 13 13 12
17 11 5 3 3 6 5 6 7 7 7 7 4 4 2 7 6 4 4 5 1 2 3 4 3 3 4 5 1 3 5 7 9 12 9 15 17 16 16 16 16 16 16 14
9 4 3 5 5 4 4 5 5 7 4 7 7 7 2 4 2 2 3 2 1 2 2 2 2 2 3 2 3 5 6 7 8 10 14 15 17 19 20 19 16 15 15 14
12 12 17 8 4 5 3 3 3 4 3 5 4 6 9 3 3 2 2 2 2 3 2 2 2 2 4 1 3 5 6 7 8 9 11 12 13 13 14 16 14 13 12 11
8 3 4 3 4 3 4 3 3 2 1 1 2 2 5 4 4 3 2 3 3 4 2 3 2 5 3 2 4 4 5 7 7 7 7 8 8 8 9 9 8 6 6 7
3 3 5 3 3 3 2 1 2 2 2 1 3 3 2 2 2 2 2 2 1 2 2 4 3 7 5 4 6 6 8 9 10 9 7 6 6 5 5 4 4 3 4 6
4 3 4 2 6 5 5 7 4 2 0 1 2 3 1 0 1 1 0 2 3 4 3 1 10 10 6 5 7 9 10 11 12 12 12 10 7 6 5 5 4 3 3 4
4 5 3 6 5 4 6 6 4 2 1 1 1 1 1 2 1 2 4 2 3 2 1 9 14 10 6 5 3 5 7 8 9 11 13 13 12 11 10 7 5 3 3 2
4 5 6 9 8 7 5 7 5 4 2 0 0 2 6 1 1 2 3 3 2 3 9 14 11 8 6 4 4 6 8 9 9 9 8 9 10 10 8 8 9 7 4 3

GFSNW_850_spd_072.txt.gz
Wind_Speed
28 31 34 33 30 30 26 9 1 14 13 4 3 3 8 7 6 0 3 4 6 3 3 6 5 4 2 6 3 5 3 5 5 3 3 1 1 2 1 2 3 3 2 3
27 30 33 31 28 27 22 9 6 10 14 4 5 6 5 3 8 6 5 5 6 3 4 4 5 4 2 7 3 2 4 4 6 4 2 1 3 3 3 5 2 3 2 4
24 28 31 30 27 22 14 6 3 6 9 3 4 5 4 6 5 4 4 4 2 3 7 7 4 5 5 5 6 9 3 3 2 2 4 5 5 8 9 3 2 4 2 3
22 26 30 29 26 19 10 7 3 4 4 5 8 3 6 4 6 7 10 5 8 4 3 3 4 4 3 5 5 3 2 4 6 7 5 2 2 7 10 4 3 3 4 4
18 22 26 27 27 20 14 6 5 7 4 9 9 9 7 8 6 7 5 5 8 6 4 4 3 4 1 1 3 2 1 4 5 3 3 3 3 5 9 8 6 8 5 12
18 19 22 25 25 23 11 13 11 6 6 7 5 5 6 8 5 3 5 3 5 11 6 4 3 3 6 3 2 2 2 4 1 2 1 1 2 6 9 7 5 9 7 4
19 16 19 22 21 21 15 12 10 5 3 4 5 7 9 11 8 3 5 5 2 3 3 3 9 15 14 12 8 3 4 3 1 2 1 0 3 3 4 9 6 10 5 6
18 17 15 16 17 16 17 11 8 5 5 8 4 11 7 10 5 3 4 7 3 2 0 0 2 2 2 6 8 8 3 3 3 1 1 2 1 2 4 3 2 6 10 6
15 17 14 14 14 14 14 13 10 5 7 0 7 7 6 3 5 2 3 5 5 3 2 0 0 1 2 2 2 6 7 6 2 1 1 1 3 3 1 1 4 4 6 3
17 16 15 11 10 13 13 11 12 6 5 7 5 2 4 7 3 3 3 7 5 5 0 1 0 2 1 3 3 2 2 2 1 1 1 2 3 1 3 3 4 6 3 7
17 16 16 13 9 10 14 12 10 8 6 16 16 10 9 7 3 3 7 4 0 1 1 1 1 1 2 1 1 2 4 4 2 2 2 2 4 3 2 4 4 2 4 7
17 17 16 13 10 10 14 13 13 12 11 16 27 29 24 18 12 7 6 3 2 2 1 1 1 1 2 1 1 2 2 2 0 4 1 2 3 2 3 6 9 7 6 7
19 16 17 13 14 13 13 14 13 13 14 22 9 10 13 18 20 19 6 2 2 2 1 1 1 1 1 2 1 1 3 4 2 2 3 5 4 2 1 1 5 2 6 7
17 17 18 17 16 14 11 14 14 13 7 6 7 5 8 9 13 16 20 9 3 4 2 1 1 1 3 1 1 3 1 6 3 4 7 7 6 2 5 5 5 4 5 6
19 19 19 20 17 13 15 18 20 16 13 4 14 28 12 15 14 15 14 20 17 6 3 3 2 1 3 1 1 4 7 5 4 3 1 3 1 6 8 4 4 4 5 6
20 19 22 19 16 16 17 6 3 10 18 3 4 7 10 12 14 15 19 17 13 7 3 2 3 3 4 3 3 3 9 8 6 1 3 7 10 5 4 6 5 6 7 7
19 21 22 19 14 11 16 7 3 6 16 3 4 5 5 13 14 12 16 17 9 7 3 2 2 3 4 3 6 4 8 8 6 6 8 5 2 2 10 8 7 7 7 7
19 21 23 17 12 12 10 13 10 2 12 4 3 4 4 11 9 6 10 6 7 4 3 2 3 3 5 4 7 4 8 7 7 8 8 11 13 12 8 8 8 8 7 7
20 22 16 14 5 4 5 5 6 5 9 4 4 3 1 8 4 6 5 6 3 4 2 3 4 4 6 4 7 8 6 5 6 8 10 11 11 11 12 12 12 13 14 13
15 11 4 3 2 5 3 7 7 9 6 6 4 6 2 8 7 4 5 4 2 2 3 4 3 3 2 4 4 5 5 6 7 8 5 7 12 12 14 15 14 16 18 17
7 4 3 5 8 9 4 5 5 6 4 7 7 8 3 5 2 2 4 2 1 2 2 2 2 2 3 5 3 4 5 7 7 9 11 11 13 14 15 16 14 17 18 18
9 11 16 11 4 6 4 3 4 5 4 6 4 5 8 2 4 2 3 2 2 3 3 2 3 2 5 3 2 2 3 4 6 8 10 11 12 12 13 14 14 16 15 14
7 2 3 3 4 4 4 4 3 3 3 1 3 2 6 4 3 3 2 3 3 4 3 3 0 6 5 3 2 2 2 3 5 5 6 7 8 8 9 10 10 10 8 7
1 2 4 3 3 3 2 3 3 5 5 5 1 3 2 4 3 2 3 2 2 3 3 3 3 8 7 5 4 4 5 6 8 8 7 6 6 5 5 6 6 6 6 6
2 3 4 3 5 7 11 13 9 6 6 5 0 1 1 1 2 2 1 3 3 3 2 1 8 12 9 7 6 6 6 8 10 12 13 12 10 8 6 7 7 6 5 6
3 5 4 5 5 4 9 12 8 10 9 4 1 1 1 1 0 2 3 2 3 1 1 5 14 12 10 7 4 3 5 6 6 7 9 11 12 13 13 11 8 6 6 5
3 4 6 9 9 8 5 11 12 16 8 2 1 1 2 1 1 2 3 2 0 2 5 15 14 11 10 7 4 2 4 5 6 7 7 7 7 8 9 10 12 10 7 6

GFSNW_850_spd_075.txt.gz
Wind_Speed
28 30 34 35 35 33 29 8 3 16 6 3 2 3 5 6 8 2 4 5 6 8 8 10 7 7 6 8 5 5 4 5 5 7 8 10 7 9 9 4 5 2 4 4
27 28 32 32 32 28 23 12 6 10 9 3 5 7 5 2 7 9 5 6 8 5 6 3 6 6 6 6 5 5 1 5 5 4 3 2 4 7 4 2 2 2 3 5
27 26 30 32 31 25 14 7 4 7 7 2 4 5 6 8 2 3 4 5 4 4 7 6 4 5 6 8 6 7 3 3 3 4 6 7 4 9 8 2 2 3 2 10
25 26 28 31 30 25 9 8 3 6 4 5 11 6 7 9 7 8 7 3 7 5 3 5 4 4 4 5 3 3 3 5 8 9 8 5 3 6 9 3 2 2 6 8
24 24 25 28 28 25 13 6 5 7 8 11 8 10 8 8 12 8 5 6 8 9 6 6 2 1 2 3 3 3 2 3 3 3 3 1 1 3 8 9 9 4 2 4
24 23 23 24 25 26 9 12 9 4 9 7 5 3 5 7 14 2 6 6 5 8 9 5 4 3 4 4 3 2 2 4 3 2 2 2 4 8 10 7 5 8 7 4
22 20 21 20 21 20 13 10 10 5 4 6 7 6 9 12 12 7 7 6 2 3 5 4 5 8 8 7 5 2 1 1 2 1 1 2 4 3 4 7 5 7 2 2
20 17 20 18 19 17 13 14 7 5 5 10 8 14 7 13 10 3 5 7 4 5 4 2 2 3 3 5 6 4 2 1 1 2 4 4 5 3 4 6 2 8 7 3
19 19 16 17 16 16 12 12 13 5 7 1 10 11 11 3 6 3 4 5 5 4 2 2 2 1 2 2 2 2 1 1 2 2 2 1 5 5 2 2 3 7 7 4
18 17 17 16 14 13 14 10 12 6 8 6 10 4 5 7 5 4 3 8 4 4 3 2 2 2 2 1 2 2 2 2 3 2 1 1 5 2 1 3 4 9 3 3
15 16 17 15 13 11 16 11 13 8 6 22 12 7 12 13 6 3 8 5 1 2 2 2 1 2 2 2 1 1 2 2 1 1 2 2 5 4 1 5 7 3 4 3
14 17 15 15 14 13 15 13 14 15 14 20 28 30 27 23 19 11 5 4 6 4 3 0 2 2 1 2 1 2 1 2 2 3 3 4 3 4 3 3 5 6 4 2
14 16 14 17 15 17 14 16 14 16 16 25 9 9 8 12 21 18 4 3 4 2 3 3 2 3 2 2 0 2 3 2 2 2 4 3 1 2 4 3 4 3 2 4
13 16 16 16 18 16 13 15 14 13 9 6 6 8 8 5 9 17 23 12 5 7 4 3 2 2 1 2 3 4 4 4 3 5 5 7 7 4 5 5 4 3 4 5
16 17 16 15 19 14 13 18 19 18 12 6 17 29 16 16 19 15 16 20 15 8 4 3 2 1 2 1 2 6 6 6 5 1 5 2 7 1 6 5 4 4 5 6
18 18 18 17 16 13 14 7 3 5 19 6 4 8 11 6 14 15 17 17 14 8 4 3 4 2 2 3 3 4 6 8 8 3 1 2 3 3 2 4 5 5 6 7
20 17 19 18 20 15 13 6 8 8 7 5 5 5 5 11 13 13 16 18 10 9 5 4 4 4 3 3 7 8 4 5 4 2 2 5 1 2 5 8 7 7 7 8
19 18 22 21 13 12 12 13 15 6 9 4 3 4 5 13 9 7 11 9 11 6 3 3 3 3 4 4 5 7 2 5 5 4 6 7 9 11 10 10 9 9 9 8
23 18 14 6 1 1 4 7 4 8 8 3 4 3 2 10 4 7 6 5 2 2 2 3 4 3 5 6 7 7 5 3 3 7 8 9 9 8 9 11 12 13 14 12
18 9 3 3 2 4 3 3 6 7 6 7 4 4 4 4 6 7 4 3 2 2 4 2 3 3 10 1 3 6 6 5 6 5 5 6 9 10 11 12 13 14 16 16
9 5 4 6 8 4 2 3 5 5 4 7 7 11 4 5 2 1 2 2 2 2 3 2 2 3 3 3 3 3 4 6 7 8 9 9 11 11 13 13 13 14 14 16
12 13 16 10 3 4 3 3 3 4 4 4 4 6 7 4 3 2 3 2 1 2 3 2 3 1 4 4 2 1 2 3 5 7 9 10 11 12 13 13 14 15 15 16
10 4 4 3 2 4 4 3 2 3 3 3 4 2 4 5 3 3 2 4 3 5 3 3 0 7 6 4 3 1 1 2 4 5 6 7 8 8 10 11 11 12 12 11
2 3 5 3 3 2 3 3 4 7 8 15 11 4 1 3 2 2 3 2 2 3 4 3 3 9 8 5 5 4 3 5 6 7 7 6 5 5 6 7 9 9 9 9
3 2 4 4 4 6 6 10 10 11 17 16 5 3 2 1 2 2 2 3 4 3 1 1 7 10 10 9 8 5 4 3 4 5 7 8 7 7 7 8 8 7 7 7
3 5 5 7 9 5 7 10 10 15 25 14 4 2 1 1 0 2 3 2 2 1 1 4 13 13 11 10 6 3 1 1 3 5 6 7 8 8 9 10 11 9 9 7
4 6 9 11 11 10 7 8 9 17 11 3 3 2 2 2 1 2 2 1 1 1 2 9 14 13 12 10 7 2 1 3 4 5 7 8 8 8 9 9 10 10 10 9

GFSNW_850_spd_078.txt.gz
Wind_Speed
30 30 33 34 37 37 26 8 1 13 13 4 3 4 5 3 9 5 6 5 8 9 9 10 5 7 6 8 6 4 5 4 4 3 4 12 4 7 5 2 4 2 2 4
29 30 32 33 34 30 20 10 7 10 12 4 3 8 8 2 5 8 7 7 6 7 5 4 6 6 8 9 6 3 4 1 5 6 3 3 5 9 4 0 2 4 2 2
28 29 31 32 32 25 11 8 5 9 9 3 3 5 6 9 3 4 7 7 6 7 7 8 5 3 4 7 4 10 5 3 4 3 5 8 5 14 11 4 2 2 2 4
28 29 30 31 31 23 10 9 3 5 4 4 10 7 7 9 11 10 10 4 9 8 5 6 4 3 4 2 4 1 4 5 7 8 8 7 6 10 11 5 5 2 2 7
26 27 28 29 29 23 15 6 6 7 6 13 9 9 8 8 8 6 8 8 10 11 6 6 6 7 6 4 4 3 3 3 5 4 5 6 5 5 7 7 4 2 5 6
24 24 25 26 26 24 9 12 9 4 7 6 5 4 6 7 15 9 7 8 6 6 5 10 9 3 4 4 6 3 4 4 1 1 3 5 2 6 7 5 4 5 4 3
21 20 21 22 22 20 11 12 7 5 3 5 5 7 11 9 13 7 10 11 5 5 11 11 6 4 6 7 4 3 3 3 3 3 2 2 3 5 2 5 6 5 5 5
20 18 17 18 19 16 14 12 9 4 4 10 6 13 6 17 16 9 3 6 7 9 9 3 2 2 1 5 6 6 6 2 2 1 2 4 2 2 3 5 4 7 4 5
21 17 15 16 17 16 13 10 12 5 7 1 10 12 7 4 5 7 5 5 7 7 2 2 1 0 2 2 0 1 2 3 2 2 0 2 3 4 2 2 2 5 7 6
22 16 15 15 15 14 15 10 12 8 8 9 14 4 6 6 5 5 5 10 6 5 3 2 2 1 2 1 1 0 1 2 1 1 2 3 5 4 2 1 3 8 10 7
20 16 16 13 14 12 12 13 12 10 6 26 7 5 7 10 7 3 9 6 2 3 2 2 2 3 2 3 2 2 1 2 1 3 0 1 2 2 1 4 8 5 1 4
17 17 15 14 17 14 15 13 11 15 17 22 30 32 25 28 23 14 6 4 4 5 2 3 2 2 1 3 1 1 1 2 0 2 1 3 6 8 4 3 3 2 1 2
17 14 14 15 15 16 17 15 13 15 15 25 8 12 12 9 12 24 6 4 2 4 6 3 2 2 2 2 2 4 3 2 1 2 5 4 5 10 7 5 4 3 3 1
14 15 16 16 13 17 16 14 10 13 9 6 7 9 11 6 6 12 29 15 8 12 10 3 2 2 1 2 1 1 1 1 1 3 3 9 10 9 7 5 2 1 2 3
14 16 16 16 14 16 20 19 21 16 13 5 18 35 8 9 16 21 17 22 18 6 5 2 2 2 1 1 1 2 5 3 2 1 7 5 10 4 2 4 3 3 3 3
14 17 16 17 16 17 19 7 4 3 9 6 4 11 25 14 7 21 17 15 13 7 4 4 4 4 1 2 2 4 4 2 6 2 3 3 2 0 3 2 4 4 4 4
17 17 18 17 18 18 10 5 11 16 15 4 5 5 6 3 10 13 13 14 7 8 5 5 4 3 4 2 3 4 0 4 5 4 1 2 2 3 2 5 5 6 5 5
18 21 19 16 13 6 6 7 11 11 5 4 3 4 6 9 7 6 11 9 11 5 3 2 4 3 2 4 8 6 2 5 3 2 4 4 4 6 7 9 9 8 7 6
22 19 12 4 3 4 5 10 3 5 6 4 3 3 4 9 3 6 9 7 2 4 3 3 3 3 4 5 6 9 6 5 6 5 5 5 5 6 8 9 9 9 10 10
17 10 4 2 2 6 13 4 1 5 4 6 5 5 3 6 5 3 4 5 3 3 3 2 2 3 7 5 3 3 4 3 4 3 2 5 6 7 9 9 9 10 12 13
11 8 2 7 10 7 1 3 3 4 3 6 6 9 5 6 4 1 4 2 1 2 2 2 2 3 3 4 3 2 1 2 4 5 6 7 9 10 11 11 11 12 13 13
16 13 10 6 4 0 2 2 3 3 3 3 3 6 10 6 4 2 2 2 1 2 3 1 3 1 7 6 4 2 1 1 3 5 6 8 9 10 11 12 14 13 14 14
6 4 2 3 1 2 3 3 2 4 7 6 13 5 6 5 3 1 1 3 2 5 2 3 3 7 7 6 4 2 1 2 2 3 4 4 5 6 7 9 10 12 12 12
3 4 4 1 2 1 2 1 3 8 9 20 21 7 4 3 3 2 3 2 2 2 3 4 2 8 8 5 4 4 5 6 6 7 8 7 6 6 5 7 9 10 10 9
1 2 2 4 5 5 9 9 10 13 20 21 12 8 5 1 2 2 2 3 3 3 1 0 4 11 9 8 8 6 5 4 3 5 6 6 6 7 8 9 10 10 9 9
3 4 3 8 8 5 7 11 12 13 23 20 5 3 2 2 1 2 3 1 2 1 1 2 9 12 11 11 8 6 2 1 3 5 7 7 7 8 8 10 10 10 10 10
4 6 10 12 11 10 9 10 13 17 13 3 5 4 3 2 1 1 0 2 1 3 4 5 11 13 13 11 8 4 1 2 4 5 6 7 8 8 8 9 10 10 9 10

GFSNW_850_spd_081.txt.gz
Wind_Speed
32 33 33 33 35 35 24 7 3 14 9 6 3 2 7 3 7 3 5 5 6 4 4 5 3 4 3 5 4 3 1 4 5 3 2 4 4 6 4 4 4 2 3 5
32 32 33 32 32 28 21 7 5 11 9 4 3 6 4 4 3 5 5 4 4 9 5 4 3 4 6 9 3 1 2 3 5 5 7 4 6 5 3 5 3 4 5 4
29 30 31 32 30 25 12 5 4 7 9 3 4 5 5 9 12 4 9 4 8 9 7 7 3 2 4 8 2 9 8 1 2 4 3 8 7 11 5 5 3 3 4 3
30 30 30 31 32 25 11 8 3 5 4 4 8 8 7 7 9 8 12 5 9 6 5 5 6 5 4 5 11 6 4 4 6 6 5 5 11 13 8 4 4 4 3 7
29 28 28 29 30 25 23 6 6 7 6 13 5 9 8 6 6 4 9 5 10 7 4 3 3 6 6 3 7 5 4 4 3 5 6 6 6 9 10 6 2 5 1 2
27 27 25 26 27 27 12 15 11 5 9 8 5 4 6 7 13 6 13 9 5 5 5 13 17 15 7 2 2 5 3 4 2 1 4 6 3 5 6 4 5 5 4 4
23 26 22 22 23 19 14 15 7 5 4 4 3 7 5 9 11 6 13 13 5 4 14 14 8 5 5 8 7 5 2 2 2 3 3 1 4 1 4 6 4 4 3 5
21 25 19 19 18 16 14 12 12 4 4 8 7 11 5 12 13 8 6 5 9 13 9 3 3 4 3 2 5 6 3 3 2 3 2 2 0 3 4 5 5 5 6 5
21 23 17 18 16 17 15 8 10 7 4 4 13 9 8 4 6 8 6 10 8 8 1 1 1 1 1 1 1 5 5 4 4 2 3 2 2 2 3 3 2 4 8 5
21 21 18 17 16 16 16 9 10 7 6 6 12 3 5 5 3 4 7 12 9 9 3 2 1 2 1 2 2 2 3 3 2 1 2 2 2 2 3 3 3 10 15 9
18 18 18 15 16 18 17 17 7 8 7 22 5 1 6 10 6 3 9 9 2 4 4 3 2 2 1 2 2 1 2 2 1 1 2 1 3 3 2 3 6 9 7 8
13 16 15 14 15 14 18 19 14 12 13 18 32 28 20 23 28 19 5 6 8 3 2 2 2 2 3 1 2 3 1 3 3 3 3 2 4 7 7 6 6 2 3 5
12 13 14 16 17 12 16 22 18 14 12 23 7 9 4 6 7 8 9 5 5 6 8 2 2 1 2 1 2 2 3 1 1 2 1 4 8 9 7 5 5 4 4 3
11 12 13 16 18 12 14 18 18 14 10 5 8 8 18 13 7 12 15 21 8 14 12 3 2 2 0 2 2 2 4 2 1 2 3 10 7 8 6 5 3 2 1 0
12 13 15 16 16 14 18 21 13 8 12 4 15 32 4 2 10 22 23 15 23 12 6 2 2 3 2 2 1 2 4 4 3 3 1 3 5 7 5 3 2 2 0 1
12 15 18 15 16 16 19 5 2 4 3 7 4 9 15 11 7 10 22 18 12 8 4 4 5 4 1 0 2 5 7 6 6 5 5 9 8 5 2 0 1 3 3 3
13 18 19 19 16 17 11 5 9 19 19 5 5 6 5 14 1 6 17 13 8 8 4 5 4 3 4 2 3 2 1 7 8 6 6 5 7 3 1 1 3 4 3 2
14 21 22 16 7 5 5 5 10 11 7 4 3 4 7 7 3 6 10 9 10 8 4 2 3 2 2 3 5 3 3 10 7 5 4 6 5 3 3 5 6 6 5 4
17 19 13 3 1 2 4 12 10 3 5 3 3 2 3 6 7 4 10 7 4 4 3 3 3 3 4 5 5 4 5 4 5 3 2 4 5 5 5 6 7 7 7 7
16 12 3 2 2 9 16 1 1 3 2 3 4 5 3 7 3 3 3 5 2 2 3 3 2 3 4 4 3 4 4 3 3 2 2 3 3 3 5 5 6 8 9 11
14 8 3 8 13 2 1 2 2 1 1 4 5 5 3 7 4 2 4 2 2 2 3 3 2 3 2 6 2 2 2 2 2 3 5 6 6 7 8 8 9 11 12 11
16 11 8 5 3 1 0 2 2 1 3 3 4 7 12 8 7 5 3 2 1 2 3 1 3 1 7 6 5 3 1 1 1 2 3 5 6 7 8 9 10 11 11 11
10 3 2 1 1 3 2 3 3 3 4 4 12 8 6 5 6 3 2 3 2 6 2 3 3 4 7 7 6 4 2 2 2 3 3 2 2 3 4 5 7 9 9 10
3 3 5 3 3 2 1 1 2 7 8 18 21 10 5 5 2 2 2 1 2 2 2 4 1 8 9 8 6 6 7 6 7 7 8 8 7 7 6 7 8 8 8 8
3 2 3 3 4 3 4 5 8 10 17 15 15 9 6 3 3 2 2 2 2 3 2 1 2 10 11 9 9 8 6 4 4 6 6 6 6 5 6 7 9 9 9 9
4 4 4 5 4 5 2 8 10 11 13 19 6 3 3 3 2 2 3 3 2 1 2 6 3 10 10 12 11 9 6 2 3 4 5 5 6 6 7 9 9 9 8 9
4 6 8 13 13 12 9 6 11 10 10 2 4 4 3 4 2 1 1 2 1 6 9 8 6 12 13 11 8 8 3 0 2 4 6 7 7 7 7 7 8 9 9 9

GFSNW_850_spd_084.txt.gz
Wind_Speed
28 29 30 31 31 32 23 3 2 15 5 5 3 3 8 7 7 2 7 3 5 4 1 3 5 1 2 22 7 14 12 4 7 11 2 6 3 5 3 4 4 0 3 5
28 31 31 30 29 28 18 4 4 11 10 4 3 7 6 4 7 6 4 4 4 5 5 1 3 4 3 19 10 15 11 2 4 4 3 3 5 5 3 4 3 4 5 5
27 30 30 29 28 25 11 4 4 7 9 3 2 5 5 8 11 5 9 4 6 6 6 6 5 6 3 3 8 2 6 2 4 6 4 6 6 6 6 4 3 4 4 3
25 29 28 28 29 23 7 7 2 3 3 4 6 7 8 7 9 10 14 5 9 5 4 6 6 5 6 4 7 5 1 3 3 6 3 6 10 10 8 4 4 5 3 6
24 28 26 27 28 25 25 5 5 6 5 10 6 7 6 9 7 4 6 9 15 5 3 1 3 5 4 2 6 4 4 3 2 6 3 5 5 9 7 3 3 3 1 4
22 28 23 24 26 25 12 13 7 4 6 6 3 2 6 7 15 8 12 13 10 4 4 10 15 12 13 7 3 5 2 4 2 2 3 5 2 10 10 4 4 4 4 5
20 24 21 21 21 22 17 14 8 4 3 3 2 3 10 9 13 9 16 21 3 7 21 16 6 3 1 5 5 4 2 3 2 3 3 0 2 1 7 7 6 5 3 2
17 22 19 18 17 18 16 11 11 5 3 5 5 10 6 12 11 7 8 9 11 18 9 4 3 3 4 3 4 6 3 3 3 4 2 3 1 2 5 6 6 6 6 5
13 18 17 17 16 18 16 10 11 8 4 3 9 6 8 4 7 6 6 15 12 8 2 3 1 0 2 3 5 4 4 5 3 2 3 1 0 1 3 4 3 6 8 6
14 18 15 13 14 17 17 14 9 6 5 5 10 4 2 6 5 4 8 12 11 11 3 2 2 2 2 2 3 3 3 3 3 1 2 4 2 1 1 3 4 5 14 11
16 13 12 13 14 14 15 15 15 9 6 19 8 3 7 14 9 3 10 11 1 4 4 2 2 1 1 1 3 2 0 2 0 1 2 1 3 3 2 3 6 11 12 6
15 13 12 12 13 14 14 14 16 13 12 19 24 21 21 16 9 18 6 6 7 5 2 2 2 2 2 0 1 4 1 2 1 4 3 2 1 1 3 5 7 5 7 7
12 13 13 12 13 14 13 17 18 20 10 19 6 6 1 6 7 7 6 4 4 4 7 3 2 2 2 1 2 2 2 1 1 2 0 2 5 6 6 5 5 4 5 5
11 12 14 15 15 13 12 16 18 19 7 5 6 5 20 22 15 13 14 14 18 15 19 3 1 2 1 2 3 1 3 1 1 2 4 5 3 4 5 6 5 4 3 2
9 11 14 15 14 13 15 18 16 9 4 4 13 26 1 9 8 13 21 25 17 7 5 3 2 3 2 1 1 3 4 4 3 4 4 2 4 6 5 3 3 2 1 1
9 12 16 17 15 14 17 4 2 1 15 8 4 11 12 11 15 8 13 19 13 6 5 5 5 4 1 1 2 4 6 6 6 5 5 4 9 7 3 1 1 2 3 3
9 13 18 19 15 11 5 3 8 15 15 4 6 7 5 16 7 1 5 12 11 9 5 4 4 4 5 2 3 3 2 5 5 9 9 6 9 4 4 2 0 2 2 3
10 15 18 16 7 3 3 3 8 12 4 2 2 4 8 12 7 2 8 6 9 8 4 3 2 4 2 4 5 3 1 5 6 5 5 4 7 7 5 4 4 5 5 5
11 13 13 4 5 2 6 13 12 5 1 2 1 2 3 10 6 6 7 8 3 5 2 3 4 3 5 5 5 5 6 4 4 4 2 3 4 5 6 6 8 8 8 8
10 8 3 3 4 14 7 2 1 1 1 2 3 3 3 4 3 4 3 7 3 3 4 4 4 4 10 4 3 6 6 5 4 4 4 3 3 4 6 6 7 8 8 9
8 7 2 6 7 3 2 2 1 2 3 4 4 7 3 9 3 3 4 1 2 2 3 3 2 3 2 6 4 3 2 1 2 3 5 5 6 8 9 9 10 11 11 12
10 5 3 3 4 1 1 2 2 2 2 3 4 6 11 9 5 5 4 2 1 3 3 2 2 1 4 6 5 4 2 1 2 3 4 5 6 7 7 8 9 9 10 10
5 4 3 3 2 3 2 2 4 3 2 2 7 7 5 5 6 6 2 3 2 6 2 3 2 4 7 7 6 4 2 1 1 2 2 1 1 2 2 3 5 6 7 9
3 3 4 3 3 3 3 2 3 7 8 14 18 8 6 5 4 3 3 1 2 2 3 4 1 4 8 8 6 6 7 7 6 5 4 4 3 3 3 4 6 6 7 8
1 2 2 4 5 5 3 5 7 12 13 14 13 8 7 3 4 3 2 3 3 3 2 1 5 4 10 10 8 9 8 5 3 3 5 5 5 5 5 6 7 7 7 7
1 3 2 6 3 4 3 6 10 8 12 16 5 4 3 5 2 3 3 3 2 1 2 8 7 6 10 11 12 12 8 4 2 3 4 4 5 4 6 8 8 7 8 8
1 4 6 11 10 10 9 4 7 10 10 2 3 3 3 4 3 2 3 3 2 8 12 9 5 6 11 12 11 10 8 2 1 2 4 5 6 6 6 6 7 7 8 8

GFSNW_850_spd_087.txt.gz
Wind_Speed
22 25 24 26 28 28 14 3 3 15 6 4 4 3 8 7 6 4 5 3 4 4 1 5 8 8 6 17 16 10 4 2 3 7 1 8 4 6 5 3 4 1 3 4
21 24 25 26 27 27 15 4 4 13 8 3 3 7 6 5 6 8 6 4 4 9 4 2 2 3 10 24 12 17 11 6 3 3 2 4 9 5 5 5 4 4 4 4
20 24 25 26 26 25 10 4 3 6 8 5 3 5 5 9 10 4 10 4 8 6 5 5 4 7 6 21 16 18 21 6 5 6 3 8 10 14 8 5 3 4 4 3
19 24 25 26 26 23 6 7 2 4 4 4 7 6 6 9 10 7 12 4 12 5 4 7 6 4 4 12 10 7 8 1 3 3 4 9 11 14 12 9 6 4 3 6
19 24 24 24 26 22 27 5 5 6 4 11 7 8 6 8 8 5 5 9 17 8 3 2 5 6 3 2 1 4 3 3 2 6 4 5 4 9 11 6 4 5 2 4
16 22 21 21 24 25 12 11 6 2 5 6 3 3 5 6 11 8 11 12 15 6 5 16 19 15 11 7 3 1 2 4 2 2 4 6 1 9 11 5 4 6 5 5
11 18 19 17 20 21 17 16 8 4 2 2 2 4 8 9 12 6 16 15 7 8 31 20 2 4 6 3 2 2 2 2 2 3 2 0 4 1 9 8 5 6 2 2
10 15 15 15 18 18 15 16 9 4 2 4 4 8 5 15 12 4 9 8 16 24 13 4 3 3 4 3 4 6 4 3 3 3 2 3 0 2 5 6 6 6 5 3
9 13 13 13 15 15 14 16 13 5 1 3 7 5 7 4 5 6 4 15 16 13 2 2 1 0 2 3 7 3 4 6 3 1 3 2 1 1 2 3 4 6 9 6
8 11 12 12 12 13 13 12 14 6 3 4 4 3 4 5 5 4 7 11 11 12 4 2 2 2 1 2 3 4 3 3 2 1 1 3 3 2 2 3 4 3 11 12
6 10 10 11 12 12 11 9 13 14 5 16 6 4 9 13 10 2 10 7 3 3 3 2 2 1 1 1 1 0 0 2 1 1 3 1 1 1 4 3 2 8 11 7
5 8 9 10 11 13 13 12 13 15 10 13 25 16 16 18 16 13 4 3 3 4 3 3 2 3 2 0 2 2 0 3 2 4 3 3 2 2 2 3 7 6 6 3
4 6 8 10 12 12 13 11 12 16 7 18 5 3 3 6 10 10 4 2 2 3 8 5 2 3 1 1 2 2 2 2 1 1 2 1 4 6 6 6 6 5 4 3
3 4 7 10 12 12 10 12 12 11 5 4 6 14 21 13 13 13 15 14 8 14 16 4 2 2 1 2 3 2 4 2 1 1 1 3 2 3 5 6 6 5 3 2
1 4 7 10 12 12 10 9 6 5 5 4 12 16 5 8 11 10 13 19 17 7 5 3 2 2 2 2 1 3 4 4 3 3 4 3 3 6 5 4 4 3 2 1
1 4 8 12 12 12 6 4 4 6 14 6 3 8 8 14 10 7 9 12 11 5 1 5 5 4 2 2 2 4 4 4 3 2 2 3 6 7 4 2 1 2 3 3
4 5 10 12 9 5 4 3 3 8 13 3 5 7 6 14 7 4 1 8 5 6 3 5 4 3 2 2 3 4 5 0 2 4 4 3 5 2 3 2 1 2 3 3
4 5 10 7 7 7 5 3 3 9 4 2 2 4 7 7 5 2 4 6 8 8 4 4 3 5 3 4 5 7 2 1 3 3 2 2 2 5 4 3 2 3 4 6
4 4 2 6 3 2 2 5 3 2 2 1 2 2 4 9 3 5 4 7 3 4 3 3 2 2 4 4 6 5 5 3 3 3 2 2 3 4 4 6 7 6 7 7
1 2 2 3 4 5 6 4 3 3 2 0 3 4 3 7 3 4 2 4 2 2 4 3 3 4 14 7 5 4 4 4 4 4 3 3 3 4 5 6 7 9 10 11
2 2 2 3 4 3 2 3 3 2 1 2 4 6 5 8 3 2 5 2 2 2 2 2 2 3 1 4 4 4 3 2 2 3 4 4 5 6 7 8 10 12 13 14
2 2 7 4 2 2 3 1 1 1 2 3 5 8 12 7 6 4 5 3 2 3 5 2 3 2 3 6 5 4 3 2 2 3 4 4 5 5 7 7 8 10 11 11
4 3 4 2 2 5 3 1 4 2 2 2 11 8 6 5 5 6 3 4 3 2 2 3 2 1 6 7 6 4 2 1 0 2 2 1 1 2 2 3 4 5 6 8
1 2 3 3 3 3 3 3 3 2 5 12 15 8 4 5 4 3 4 2 1 2 2 4 1 4 6 8 6 4 6 6 5 4 3 2 1 1 2 3 5 6 7 7
1 2 2 4 1 3 4 5 4 4 7 8 9 8 6 3 4 3 3 3 3 3 1 1 8 7 6 9 8 9 9 5 2 2 3 3 3 3 4 5 6 6 7 8
1 2 3 3 1 2 5 6 7 1 7 9 3 3 3 4 4 3 4 2 1 2 3 12 13 8 7 10 10 12 10 5 2 1 2 3 3 4 5 6 8 7 8 8
1 1 4 4 4 7 5 3 2 2 5 2 2 3 4 4 3 2 4 4 4 15 15 14 11 8 8 10 12 11 11 5 1 1 2 3 4 5 5 6 6 7 7 8

GFSNW_850_spd_090.txt.gz
Wind_Speed
19 21 22 23 24 25 12 2 3 14 8 3 3 2 6 10 6 11 4 3 4 4 1 5 6 6 7 17 14 10 5 3 3 4 3 7 3 7 6 3 1 1 2 4
17 19 20 21 22 23 10 3 3 10 7 3 3 5 3 5 7 7 8 5 6 6 3 4 2 4 4 21 12 14 8 3 3 3 4 3 7 5 5 6 3 3 3 3
15 18 19 20 20 20 7 2 3 6 8 6 3 5 4 7 10 3 9 4 7 9 5 6 5 7 4 13 10 10 16 4 5 4 4 6 6 8 5 6 3 4 4 5
13 17 18 20 20 18 3 5 2 2 3 4 4 4 6 8 11 8 12 2 11 9 4 6 7 5 3 7 8 7 4 7 6 4 7 8 14 14 11 4 4 6 4 6
13 16 17 19 20 14 16 4 2 2 2 5 4 8 6 4 4 5 7 8 15 10 2 3 6 7 3 1 9 6 4 2 5 4 4 5 8 10 14 13 4 5 2 4
9 14 16 18 20 18 10 6 4 2 4 3 2 2 4 5 10 7 8 12 12 8 4 18 23 16 15 7 1 7 4 2 2 2 1 5 1 11 15 6 5 12 7 7
6 10 14 15 18 19 16 11 4 3 2 2 1 2 3 4 8 6 14 18 6 7 29 21 2 4 10 7 4 5 3 2 2 2 1 2 1 2 8 8 6 6 3 4
5 7 11 12 15 16 16 15 6 3 2 2 1 6 3 12 11 4 8 5 13 21 13 5 4 2 4 2 2 4 1 3 3 4 3 4 2 2 4 6 5 6 5 4
3 5 9 10 12 13 13 14 13 5 5 3 2 3 3 3 6 6 4 16 12 12 1 3 3 2 2 5 8 2 2 4 3 2 2 1 2 2 1 3 4 3 10 7
3 4 7 10 11 12 12 11 13 6 1 2 1 1 1 2 4 3 7 14 10 13 4 2 3 2 1 2 4 4 4 3 2 2 1 3 3 3 1 3 3 2 7 9
3 3 6 9 10 11 11 10 10 10 5 5 3 4 5 3 1 2 9 7 4 5 4 3 2 1 2 2 2 2 1 1 0 1 2 0 4 1 3 2 3 3 9 9
3 3 6 6 9 11 11 9 10 9 4 5 12 5 4 5 9 9 3 3 2 4 3 3 2 2 2 1 3 3 1 2 2 3 3 3 3 2 1 1 5 6 8 6
2 3 5 6 7 10 11 9 9 9 5 4 6 7 6 5 12 11 4 2 1 2 7 3 2 3 1 2 2 3 3 2 0 2 1 1 2 3 4 5 6 6 5 4
3 1 4 5 7 8 9 9 6 9 3 3 2 11 6 3 5 5 9 14 10 10 11 4 3 2 2 2 3 2 4 3 1 3 3 0 1 3 4 6 6 5 4 3
3 1 2 4 7 9 7 4 7 10 6 0 9 6 3 7 9 9 8 10 12 8 5 3 2 2 1 1 1 3 3 3 3 3 3 1 1 5 4 4 5 5 3 2
4 1 3 4 5 6 2 1 2 8 10 2 2 7 6 12 13 7 6 11 10 6 3 5 6 4 3 1 2 5 4 5 5 2 2 2 4 5 4 3 3 2 2 3
6 2 4 3 2 4 2 1 2 8 5 2 4 8 4 12 7 6 2 6 3 6 4 5 4 4 2 2 3 5 5 3 2 3 5 4 5 2 3 3 2 2 2 3
6 2 2 3 10 5 2 3 2 4 2 3 1 3 6 12 5 5 2 3 5 6 5 5 4 2 4 4 6 6 4 1 1 1 1 0 2 5 4 2 1 1 2 3
6 2 5 10 2 2 1 3 4 4 3 3 3 2 3 12 6 5 3 5 3 5 3 4 3 2 5 5 5 2 2 3 2 2 1 1 2 3 3 3 5 6 6 6
7 9 4 4 2 5 7 2 2 3 5 4 2 2 3 7 4 3 5 4 2 2 4 3 3 4 12 7 4 2 3 3 3 3 2 2 3 2 3 4 5 6 8 9
9 6 5 6 9 4 2 2 2 1 2 1 2 4 4 6 2 2 3 3 2 2 3 2 2 3 1 1 3 3 2 1 1 2 3 3 4 5 6 7 8 9 10 11
8 7 10 7 3 2 4 1 0 1 2 1 3 4 8 6 4 4 4 3 2 4 3 2 3 2 1 3 3 2 1 2 3 4 4 5 5 5 6 7 7 8 8 9
11 5 5 4 1 5 4 3 3 1 4 3 4 4 3 4 4 7 3 4 4 1 3 3 1 5 3 4 3 2 3 5 4 3 2 2 1 1 2 2 4 5 6 7
4 5 1 2 1 3 3 4 4 2 2 2 6 5 3 3 3 3 3 3 2 3 1 3 2 13 11 7 6 5 3 3 4 3 2 2 2 3 3 4 6 6 7 8
3 4 3 3 3 3 5 3 2 3 2 3 4 5 4 3 3 3 4 3 2 2 2 3 16 20 13 11 10 7 8 5 2 2 2 2 2 2 4 6 7 7 8 8
3 3 4 4 3 3 6 7 5 4 1 3 1 3 3 4 3 3 3 6 4 4 5 19 24 20 14 11 11 10 10 6 3 1 1 2 4 5 6 7 8 8 8 8
2 3 4 6 3 3 3 4 6 3 2 1 1 2 4 3 3 3 2 1 2 12 22 22 23 19 16 9 10 11 11 10 5 2 2 3 4 6 6 6 7 8 8 9

GFSNW_850_spd_093.txt.gz
Wind_Speed
15 17 18 19 20 21 9 0 2 13 6 3 3 2 4 7 7 9 3 3 6 5 3 3 4 4 5 12 11 7 5 2 3 2 5 5 2 5 4 3 3 2 1 2
14 15 15 17 18 20 9 1 2 9 6 3 3 4 2 2 5 5 6 4 9 9 4 4 3 3 3 14 9 7 6 1 3 2 3 3 4 4 4 3 3 1 2 1
12 12 13 15 15 17 6 1 2 4 8 4 2 4 4 6 8 1 5 3 6 6 2 2 5 7 3 6 7 6 10 1 3 4 3 5 4 6 3 4 2 1 3 3
7 10 11 13 14 13 4 4 2 2 2 3 3 3 4 5 7 5 8 1 11 7 3 5 7 5 5 2 3 2 3 4 4 7 7 5 8 15 11 5 4 4 3 5
5 8 11 13 14 9 9 3 3 3 2 3 2 5 4 4 5 3 4 7 14 10 4 2 5 6 2 3 4 3 0 3 4 3 4 7 4 12 14 14 5 2 1 2
1 8 10 13 13 13 7 4 5 3 3 2 2 1 3 3 6 5 6 8 8 8 4 16 23 17 14 3 6 8 5 3 1 1 2 4 2 10 15 8 5 6 6 5
4 9 9 12 12 16 13 8 4 3 1 1 1 1 2 3 4 3 10 11 5 6 27 21 2 4 9 7 6 11 5 3 2 1 1 2 2 3 10 12 8 5 3 3
8 9 8 10 11 13 13 13 5 3 2 1 2 2 3 9 9 3 5 3 12 17 14 5 3 2 2 2 2 5 5 2 2 1 1 4 2 2 4 7 5 7 6 4
10 9 7 9 9 10 11 12 11 3 5 3 0 1 2 3 4 5 4 13 9 11 1 3 3 1 1 4 7 1 1 2 3 2 1 1 1 4 3 5 1 1 10 8
11 9 8 8 8 9 9 9 11 4 2 2 3 2 1 3 3 1 5 14 10 15 4 3 3 2 1 2 3 4 3 3 2 0 1 3 3 5 1 2 3 4 8 11
12 10 8 7 7 8 7 8 10 8 2 3 0 2 1 1 3 2 8 3 5 6 5 3 2 2 2 2 2 0 1 1 1 1 1 2 5 3 2 2 4 2 7 10
11 10 7 7 7 6 6 6 7 6 3 4 4 5 3 1 1 3 5 0 2 5 3 3 3 1 2 2 2 2 1 2 2 3 3 3 4 1 3 2 5 5 9 8
11 10 5 6 5 4 7 6 7 7 5 6 4 4 5 4 6 7 1 1 2 3 5 3 3 3 1 2 2 2 2 2 1 2 2 3 3 4 4 7 8 8 8 7
12 10 5 3 3 3 5 7 10 8 5 4 1 5 6 7 6 5 3 10 7 5 8 2 3 2 2 2 2 2 4 1 2 3 3 3 1 2 5 6 6 7 7 6
14 11 6 2 2 5 8 8 9 9 2 3 2 3 1 3 8 8 5 7 8 4 2 2 2 5 2 1 0 3 4 3 2 3 2 2 1 4 4 5 6 6 4 5
16 11 6 2 1 7 7 3 2 7 5 2 1 1 1 9 6 5 3 5 5 3 2 4 6 5 3 2 3 5 4 4 5 2 2 2 5 5 5 4 4 3 3 3
16 12 6 5 5 7 5 4 3 5 5 2 2 3 3 10 4 4 3 3 3 4 3 4 5 4 2 2 4 5 2 3 2 2 4 4 6 4 5 4 3 3 3 2
16 12 8 11 11 8 7 5 2 2 4 4 2 3 3 11 5 3 1 3 4 5 4 4 4 3 3 4 6 6 4 2 2 3 2 2 4 5 4 4 3 2 2 2
16 12 15 15 4 3 5 8 6 8 6 4 3 2 3 9 5 4 3 4 3 4 4 4 3 2 5 4 7 3 2 3 2 3 2 3 3 3 3 3 3 3 4 4
17 20 5 5 5 10 10 4 3 4 5 5 3 1 3 6 6 3 4 4 2 2 5 3 3 3 13 8 7 4 2 3 3 3 3 3 4 4 4 3 4 5 7 8
20 8 5 14 14 4 4 3 2 1 2 1 1 3 3 1 2 2 3 3 2 2 2 2 2 1 4 6 3 2 2 2 2 2 3 3 4 4 4 5 6 6 7 8
12 11 18 12 4 4 5 1 0 2 3 3 2 2 4 3 3 3 3 3 2 4 2 2 2 2 12 7 5 3 3 3 3 4 4 4 4 4 5 4 4 4 4 4
19 6 6 5 2 5 5 4 3 1 5 5 1 2 2 2 2 4 3 3 4 2 2 1 1 10 21 15 9 6 6 7 8 7 4 2 1 1 2 2 2 3 4 5
4 6 4 2 1 3 4 4 4 5 8 5 1 1 1 1 1 2 3 4 3 2 1 1 3 19 25 19 12 10 9 7 3 2 2 1 2 2 2 3 4 4 4 6
4 5 4 3 5 5 10 11 9 7 6 4 2 1 2 2 2 2 3 3 2 3 3 2 18 24 25 22 17 12 11 9 5 3 2 1 1 1 1 3 4 5 5 6
3 4 6 7 6 4 6 7 6 9 6 4 4 1 0 3 2 2 5 3 2 2 2 12 17 22 25 21 17 12 11 11 7 4 2 1 1 2 4 4 4 5 5 5
4 3 7 10 6 11 9 10 11 9 4 2 2 3 6 2 2 3 3 4 3 6 12 16 18 19 22 20 14 10 10 12 12 8 4 1 3 4 4 3 4 5 6 6

GFSNW_850_spd_096.txt.gz
Wind_Speed
10 13 14 15 15 15 6 2 0 10 4 0 1 2 3 5 6 5 3 2 6 5 6 2 3 2 2 12 13 8 4 2 4 4 1 2 7 4 5 3 3 1 4 4
8 11 11 12 12 12 5 3 1 4 4 1 1 1 3 2 5 5 5 4 5 4 4 3 5 5 2 11 11 11 7 3 4 2 4 4 5 5 5 3 2 0 1 5
5 7 8 9 10 9 3 3 1 3 6 3 2 3 4 5 5 2 4 3 5 8 3 4 6 3 3 2 7 5 9 2 4 1 1 5 6 9 8 3 2 0 7 7
3 5 5 6 6 6 3 3 2 2 1 3 2 1 4 5 5 4 5 3 8 5 4 7 7 5 3 1 3 2 5 3 4 8 10 5 5 12 13 9 10 3 5 2
5 5 2 2 5 2 4 3 4 3 2 1 2 3 2 5 5 3 1 4 10 6 3 4 5 7 4 4 4 3 2 2 2 3 6 10 9 11 16 16 11 9 1 2
8 7 3 2 5 3 3 4 6 5 2 2 2 1 2 3 6 4 5 7 6 7 5 16 20 15 12 2 5 8 5 3 2 2 2 8 5 14 18 15 11 10 8 3
11 9 7 5 6 6 7 6 7 4 3 2 1 1 2 5 6 5 9 7 3 5 20 16 1 4 5 6 8 8 6 4 3 2 2 2 3 2 10 16 14 14 7 2
14 12 9 7 7 7 8 7 4 4 3 3 2 2 3 7 5 3 5 3 8 16 10 3 2 2 3 3 5 12 8 4 2 2 2 2 1 2 2 11 12 14 16 12
17 14 11 8 8 8 8 8 6 5 6 2 2 1 2 3 5 2 3 6 5 9 2 2 2 2 3 2 2 5 4 9 4 1 1 1 2 3 2 4 5 2 15 13
19 16 13 10 8 8 8 7 6 7 6 3 2 2 2 2 2 3 4 9 10 11 4 3 4 2 1 2 4 3 1 1 2 1 0 2 2 4 3 4 3 7 5 14
21 18 15 11 9 8 8 9 7 9 6 5 3 2 2 1 3 3 7 2 5 6 3 3 2 2 3 2 1 4 3 2 1 1 1 1 4 2 3 3 5 3 3 8
23 19 16 12 10 9 9 10 13 15 8 7 7 6 3 1 1 3 6 2 1 3 1 2 3 1 2 3 1 2 1 3 3 2 3 3 3 3 4 2 2 4 7 8
24 20 17 13 10 10 11 11 15 19 13 10 5 4 3 1 2 3 1 1 2 2 2 1 0 3 2 2 2 4 2 1 3 3 1 1 1 2 3 5 7 9 8 8
24 21 17 13 9 11 13 11 12 10 7 4 2 5 6 5 2 2 2 4 1 1 2 1 1 2 1 2 3 2 3 3 2 3 2 2 2 3 5 8 8 8 7 7
24 21 16 13 8 12 15 11 9 7 5 4 6 5 2 3 4 3 3 5 4 1 2 3 3 3 2 2 2 4 4 1 2 2 4 2 1 3 4 6 7 7 6 8
24 20 15 12 10 17 14 4 4 6 11 5 3 4 4 4 2 3 1 4 4 2 2 3 4 4 3 2 2 3 3 4 5 3 5 3 2 4 4 4 4 4 4 5
25 20 15 13 13 13 3 4 6 6 9 4 4 3 1 6 1 2 2 5 2 3 2 3 3 4 2 1 4 3 2 5 6 5 2 1 5 2 4 4 3 4 4 3
26 20 16 16 13 12 8 8 7 7 5 4 3 2 2 7 2 1 1 2 2 4 2 4 4 3 4 3 4 10 7 6 4 3 4 4 4 5 5 4 4 4 3 2
26 20 23 18 5 4 8 11 9 8 4 4 3 1 0 5 3 2 2 3 2 3 3 3 3 1 3 4 9 9 8 5 6 4 3 2 3 4 4 5 5 5 4 4
27 29 6 6 8 17 12 3 2 2 3 3 3 2 1 2 3 1 3 3 1 2 4 3 3 3 5 13 10 10 8 6 5 4 5 5 5 6 6 5 5 5 6 7
29 9 5 19 19 5 3 2 2 1 2 1 3 3 0 1 1 1 1 2 2 2 1 2 2 2 7 17 12 8 6 5 4 4 6 6 7 8 8 7 7 7 8 9
15 13 22 13 5 4 3 2 1 1 3 4 3 3 2 1 1 2 2 2 1 3 0 2 2 3 15 17 16 11 9 7 6 6 7 8 8 8 8 8 7 7 6 5
26 6 6 6 2 2 5 6 2 2 6 8 5 2 2 2 1 2 1 3 3 5 2 1 3 8 13 17 16 14 11 10 11 12 10 9 8 7 5 4 3 4 4 4
5 7 4 2 3 4 3 3 4 5 9 13 8 4 2 1 1 0 2 2 2 3 1 2 2 8 13 17 17 15 14 13 11 8 6 5 5 3 3 2 2 3 3 3
5 5 4 3 4 4 9 14 12 9 13 10 7 5 2 1 1 1 2 2 3 1 2 2 4 12 14 17 19 16 15 13 13 9 7 5 5 4 3 3 3 3 3 3
4 5 6 6 6 4 6 10 9 14 14 10 6 3 2 2 2 2 5 3 4 3 2 6 10 14 16 18 18 15 13 11 14 12 7 5 4 4 5 4 3 3 3 3
4 4 6 8 6 10 10 12 12 16 9 3 4 4 4 2 1 3 3 3 2 3 6 10 14 18 19 19 17 14 11 9 13 15 16 15 13 7 6 5 4 3 3 3

GFSNW_850_spd_099.txt.gz
Wind_Speed
15 11 11 10 10 7 2 3 1 5 3 1 2 1 0 4 3 4 2 3 7 7 7 3 1 2 3 8 10 5 2 3 3 0 5 2 3 4 4 3 2 3 3 5
16 11 9 8 8 5 4 2 1 2 4 2 1 1 1 2 3 4 5 3 6 6 6 4 5 4 2 7 10 5 4 3 3 2 1 2 4 6 4 4 3 2 3 5
18 10 8 7 6 4 5 3 1 1 3 2 4 2 3 3 1 2 3 5 4 7 5 7 5 2 1 1 7 5 7 5 7 4 5 3 4 7 8 5 3 1 7 11
17 10 8 7 5 2 5 2 2 2 2 3 1 1 3 3 2 1 3 3 5 5 3 7 4 2 3 1 2 3 3 4 4 7 3 3 3 8 11 8 9 3 6 9
17 12 7 7 5 5 5 4 4 2 3 2 3 0 2 5 4 2 1 3 7 5 3 3 4 6 4 2 4 2 1 2 5 7 8 11 8 10 13 14 11 8 4 3
15 12 9 8 6 8 4 5 7 3 3 3 2 1 2 2 6 3 3 6 8 5 5 13 15 13 9 1 4 8 3 3 3 2 4 7 5 12 11 10 9 11 5 1
14 12 11 9 7 7 7 8 9 4 4 3 0 1 2 4 5 5 5 7 5 7 17 15 3 2 5 7 7 6 4 6 5 1 6 3 2 3 7 13 9 10 3 1
20 16 13 11 9 8 7 8 6 4 3 3 3 2 3 5 3 3 5 5 7 15 11 3 4 5 5 6 7 8 6 3 4 2 2 5 1 2 1 5 5 14 12 12
20 17 15 13 11 10 7 7 8 5 6 3 3 2 1 2 3 4 1 5 8 7 3 2 2 2 3 2 5 8 11 11 4 4 3 2 4 3 3 1 5 4 6 11
23 20 17 15 12 11 7 8 11 7 7 3 2 1 2 1 1 2 2 7 6 5 2 2 2 2 2 2 3 1 3 4 6 5 2 4 5 4 3 4 4 8 5 7
26 22 19 16 14 12 8 11 13 11 6 5 4 2 1 1 2 2 5 2 2 4 1 1 1 2 3 3 1 2 2 3 1 2 2 1 5 2 3 7 7 8 5 6
27 23 20 17 15 14 11 14 16 14 7 6 7 4 4 4 2 2 5 3 1 3 3 2 2 1 2 3 2 1 0 3 3 4 4 4 3 4 5 7 6 7 8 5
28 25 21 18 15 16 14 20 20 24 10 8 3 3 2 4 2 2 1 2 1 2 4 3 2 2 2 3 3 4 1 3 3 4 3 3 4 4 5 5 5 6 8 7
30 27 22 18 16 18 15 21 23 9 6 4 3 4 3 3 2 1 3 1 1 1 2 2 2 1 3 2 4 4 5 7 5 5 3 3 2 3 3 3 3 4 5 5
32 28 23 18 16 18 14 16 18 11 5 3 6 4 1 1 2 1 0 2 1 1 2 2 2 3 2 3 2 4 2 4 3 3 8 5 4 0 2 1 2 2 3 3
33 28 23 18 17 20 15 5 6 12 11 4 4 4 3 2 3 2 2 4 1 1 2 2 3 3 3 3 2 4 2 2 3 4 9 6 2 0 1 1 1 2 2 2
34 29 23 18 17 19 5 4 8 14 8 3 5 4 2 1 2 2 2 3 1 1 1 2 3 3 3 2 3 8 10 8 8 6 6 2 2 1 3 3 3 2 3 3
34 29 23 22 20 14 7 10 12 12 5 3 2 3 4 1 1 2 2 2 2 3 2 3 4 3 3 3 5 11 12 11 6 9 7 6 5 2 2 2 2 2 3 3
35 29 26 21 10 6 8 13 10 6 3 1 1 3 3 2 1 1 2 2 1 0 2 3 3 3 3 6 12 12 13 12 12 10 9 6 4 4 4 4 4 5 7 7
35 33 8 6 8 15 14 3 3 2 1 1 2 2 2 1 1 2 1 2 1 2 4 2 3 1 6 10 9 10 8 7 9 10 7 8 7 7 8 9 8 7 7 9
33 10 5 21 21 5 3 3 2 2 1 2 3 2 3 2 1 2 1 1 1 2 2 2 2 2 3 9 9 9 9 8 7 6 7 7 9 9 9 11 11 11 11 11
16 14 26 19 5 2 3 2 1 2 3 4 4 4 4 3 2 1 3 1 1 2 1 2 3 1 5 8 11 10 10 9 10 9 10 11 12 11 11 11 11 11 11 9
29 7 7 6 3 2 6 7 3 3 8 8 6 3 4 3 2 1 1 3 3 3 2 2 1 1 4 8 11 12 10 11 12 13 13 13 13 13 12 11 8 8 8 8
5 7 6 5 4 3 3 2 4 5 10 14 9 6 3 3 2 2 2 2 2 3 3 2 2 1 6 9 12 14 15 13 13 12 12 10 10 10 7 7 6 6 7 8
5 5 4 3 6 5 7 11 10 9 13 12 9 6 3 2 2 2 2 2 4 4 2 2 1 6 10 14 15 17 17 15 14 13 13 11 11 10 9 8 7 7 7 7
3 5 5 9 7 5 6 9 10 15 13 9 5 3 3 2 2 3 6 3 5 2 2 1 5 10 14 17 18 18 17 16 13 14 14 12 10 10 9 7 8 8 7 7
4 4 8 8 10 9 9 11 10 17 8 2 3 4 2 3 2 3 3 4 1 3 0 4 10 15 18 19 20 19 16 14 12 13 14 14 16 15 15 13 8 9 8 7

GFSNW_850_spd_102.txt.gz
Wind_Speed
18 15 6 5 3 0 7 4 2 0 5 1 1 2 1 2 2 3 1 3 6 5 6 2 3 4 3 5 4 1 1 2 1 2 3 5 0 3 1 3 3 2 2 2
18 11 8 7 2 2 7 3 2 2 4 1 2 4 1 1 2 2 4 3 6 6 5 3 6 3 2 5 4 5 2 2 1 3 1 2 3 5 2 5 2 2 2 1
16 9 8 9 3 4 10 4 1 2 3 0 2 1 2 1 3 1 1 3 6 7 4 8 3 2 1 5 1 7 8 4 2 1 3 3 3 5 5 3 2 6 1 4
17 10 9 10 4 5 9 4 2 4 2 3 3 2 2 3 1 2 1 2 4 4 2 3 3 1 0 2 5 4 4 3 6 6 4 4 2 4 4 2 2 3 8 8
19 10 17 9 6 8 10 5 4 3 4 4 4 3 3 2 2 2 3 1 5 4 3 2 3 4 2 1 2 1 2 3 5 5 9 7 7 6 7 5 7 9 7 2
22 18 18 9 7 9 6 8 8 4 6 3 3 2 4 3 3 3 2 3 4 2 5 9 11 10 5 2 2 4 1 3 3 2 2 2 4 8 7 5 7 6 4 3
21 18 15 7 8 10 11 7 8 2 3 2 2 4 2 0 2 4 3 5 3 6 13 12 4 4 5 9 5 5 2 3 3 2 1 1 3 5 4 4 3 7 1 3
22 18 14 10 10 10 10 8 7 3 2 6 5 4 1 3 4 4 6 4 5 12 9 2 4 4 4 6 6 6 4 2 3 2 3 3 4 5 4 2 2 5 5 5
24 22 17 13 11 10 9 9 9 5 6 3 4 4 2 2 1 3 2 3 6 5 2 2 2 2 3 3 5 7 6 6 3 4 2 3 4 6 4 1 2 8 9 4
32 26 18 14 12 11 10 10 12 8 7 3 2 2 3 1 2 2 3 5 6 2 2 2 3 2 3 3 2 3 3 4 6 5 2 3 5 4 7 1 3 13 7 10
29 24 19 15 13 13 10 14 14 11 7 6 5 5 4 1 1 2 4 1 4 3 2 2 1 1 3 3 2 2 1 1 1 3 2 3 9 5 4 3 11 13 10 6
31 24 19 17 14 14 12 17 15 16 8 8 7 4 5 6 4 2 5 4 2 3 3 2 1 1 0 2 1 3 0 1 1 1 0 1 4 4 5 7 8 11 13 10
30 26 23 18 16 16 16 22 18 27 16 12 6 4 4 3 3 4 3 3 2 3 2 3 1 2 2 1 3 5 3 4 2 3 4 5 6 6 6 7 8 7 8 8
38 29 24 20 17 17 19 26 21 12 8 5 3 3 4 4 2 3 5 6 4 3 3 2 1 1 6 2 4 2 4 6 3 3 7 3 6 6 7 5 7 8 6 6
34 30 25 21 18 19 22 22 13 10 5 5 7 4 1 2 3 3 4 6 4 2 2 2 1 2 2 2 1 2 3 3 3 2 6 6 7 4 2 5 3 4 5 4
36 30 25 20 18 19 19 7 16 9 13 7 3 4 4 3 5 4 5 6 3 2 2 3 3 2 2 2 0 7 10 9 7 5 11 6 4 3 1 2 1 1 1 1
34 28 23 20 22 24 7 5 11 19 9 5 5 4 3 4 4 3 3 4 2 1 1 2 3 2 3 2 1 7 12 9 9 8 10 1 2 1 3 2 1 1 1 1
33 29 24 21 23 18 4 7 18 18 6 5 3 2 4 5 4 3 2 3 1 2 1 2 3 2 3 2 3 9 12 12 2 10 8 7 6 4 3 2 2 2 4 5
35 29 23 20 13 6 10 15 16 10 4 5 3 4 3 7 3 3 2 2 1 2 1 3 3 3 3 1 5 10 10 8 14 14 5 5 4 4 5 5 5 4 7 7
35 31 10 6 10 16 19 8 3 2 2 3 2 4 2 4 5 3 3 2 1 2 4 2 2 2 5 2 5 7 8 9 8 10 5 7 4 2 4 8 9 9 9 9
34 12 5 21 26 9 3 3 2 2 1 3 4 3 4 3 2 3 2 1 0 1 1 1 2 2 4 3 6 8 7 9 9 9 11 10 10 10 8 7 10 10 10 11
21 14 27 21 6 3 3 2 2 2 3 5 6 4 5 5 4 3 3 2 2 2 3 1 3 2 3 2 5 9 10 9 11 12 13 13 14 13 14 12 11 11 10 10
33 8 8 8 4 2 7 7 2 2 8 8 7 3 4 4 3 3 2 3 3 1 2 3 1 6 2 4 7 9 11 11 12 13 14 15 15 14 14 14 14 10 8 8
6 10 6 4 4 4 3 3 5 5 12 19 14 7 3 3 2 3 3 3 2 1 3 3 2 6 2 5 9 12 15 16 15 14 14 16 14 13 13 10 9 8 7 6
5 5 5 3 7 7 11 16 14 13 21 19 12 7 5 1 3 1 1 3 3 4 3 1 7 1 5 10 14 15 17 19 18 16 14 13 15 15 15 12 9 8 7 7
4 5 6 10 8 5 9 14 17 21 20 13 6 3 3 1 3 4 5 4 5 3 2 6 1 5 10 13 15 17 20 20 19 16 15 13 13 14 14 14 11 8 6 7
5 4 13 8 13 12 10 17 16 22 10 3 4 4 5 3 2 3 3 4 2 7 4 2 6 10 14 17 18 19 21 21 16 15 14 13 14 15 16 17 16 15 9 8

GFSNW_850_spd_105.txt.gz
Wind_Speed
28 21 16 12 6 9 16 8 1 6 11 3 1 2 4 3 1 2 2 2 4 3 5 4 2 2 1 4 7 4 3 0 2 1 2 3 3 1 2 3 0 2 2 3
30 22 17 14 8 13 17 8 5 5 7 3 2 3 4 2 1 1 2 3 5 6 3 2 3 3 4 7 5 2 5 3 3 7 4 1 2 2 1 3 3 5 2 3
30 22 17 13 10 14 14 7 2 4 7 3 2 2 2 3 3 2 1 1 3 3 3 6 2 2 1 6 5 7 5 2 2 2 5 1 2 2 2 4 2 5 3 4
27 23 19 14 8 14 16 7 3 5 2 2 4 3 2 1 3 0 1 2 3 3 2 2 2 1 2 1 6 5 3 1 1 5 6 2 2 2 4 3 1 2 5 7
31 26 19 14 9 16 14 8 5 5 4 9 6 3 3 2 3 1 4 2 4 4 2 2 1 3 0 1 3 3 3 2 3 4 4 4 2 4 1 5 0 4 5 2
30 25 20 16 8 17 8 10 9 6 7 3 4 4 4 4 5 1 5 3 1 1 2 5 8 6 5 2 1 1 2 2 4 3 4 2 3 3 4 5 1 6 3 4
31 25 20 17 15 18 11 10 11 5 2 3 4 5 3 5 3 3 2 1 2 2 9 8 1 4 6 4 4 2 2 1 1 2 3 2 2 5 3 8 8 6 10 3
31 26 23 19 15 16 13 10 7 5 3 8 6 7 4 5 5 3 3 3 4 9 3 2 4 2 1 2 3 5 4 2 2 1 1 3 2 5 4 3 2 4 6 7
28 27 22 20 19 14 12 12 10 5 12 1 5 5 4 3 3 2 2 2 3 2 1 1 1 2 2 1 1 1 3 5 3 3 2 2 2 5 6 3 1 8 8 4
30 25 20 17 14 12 12 12 12 7 9 4 6 3 4 3 3 3 3 2 3 1 1 3 3 1 1 1 0 2 1 2 2 3 1 2 3 8 7 2 1 16 11 10
29 37 22 11 13 13 12 12 15 8 8 9 6 6 6 5 3 3 1 2 3 4 2 2 1 1 1 1 3 1 2 1 1 1 3 1 7 4 3 1 4 9 11 2
32 33 19 20 15 13 11 17 14 13 10 11 10 9 7 5 6 5 4 4 3 0 1 2 1 2 1 1 1 5 1 2 2 3 3 1 5 4 4 4 4 9 10 10
38 28 23 18 13 13 13 20 19 21 23 15 7 8 8 5 4 4 4 3 3 3 3 3 1 1 2 1 1 3 5 3 0 3 6 4 7 8 6 7 8 8 11 10
33 28 23 16 12 14 16 22 25 11 10 7 4 7 7 6 4 5 6 11 8 7 6 2 1 1 4 2 2 0 4 4 3 2 4 6 7 5 5 5 8 8 7 7
32 32 23 16 14 14 21 26 12 10 3 6 8 7 5 6 5 6 7 8 7 3 3 2 2 1 1 2 2 1 6 1 1 1 3 2 2 5 3 3 5 4 4 5
33 31 20 18 16 18 24 7 9 6 17 8 3 5 5 7 7 8 9 6 4 2 1 1 1 1 0 1 1 2 9 9 8 2 10 8 3 4 3 2 1 2 1 1
38 27 23 20 20 25 10 5 10 18 9 5 5 3 5 8 6 5 5 4 3 2 1 1 2 2 5 2 2 2 6 6 2 7 8 3 4 4 5 3 2 3 2 1
38 29 23 21 22 19 5 3 21 19 5 4 4 1 4 8 4 3 3 3 1 2 1 2 3 2 4 2 3 1 5 5 6 4 4 6 7 5 4 4 4 5 5 5
42 30 23 18 13 6 7 15 18 9 3 4 3 5 4 9 4 4 4 3 1 3 2 3 2 2 3 3 6 3 5 6 10 11 6 5 5 7 8 8 8 8 9 9
37 28 10 7 11 14 17 8 7 5 1 2 3 7 2 7 5 3 3 2 1 2 4 3 1 3 3 6 2 4 6 5 6 8 6 7 8 9 9 11 13 12 13 13
35 12 5 22 26 9 4 3 2 3 1 3 4 4 5 5 3 3 2 2 1 1 2 2 2 3 5 7 3 4 7 5 8 9 10 11 12 14 13 12 14 15 15 15
22 14 26 21 6 4 3 1 1 2 5 6 6 6 7 6 5 4 4 3 2 3 5 2 3 3 7 6 2 3 6 9 6 8 12 14 15 15 15 16 16 17 17 16
29 10 8 7 3 2 7 7 3 2 8 9 10 3 5 5 4 4 2 4 4 3 1 3 3 7 7 3 1 4 7 10 12 11 11 12 15 15 14 15 15 16 16 16
7 8 6 6 3 4 3 3 5 7 14 24 19 8 5 4 3 3 4 4 3 3 3 5 2 10 6 2 4 8 10 12 15 17 15 13 14 15 16 16 14 13 10 10
6 6 6 4 6 6 10 17 15 13 29 24 14 9 5 2 3 2 2 4 3 5 4 3 10 8 2 4 8 11 14 17 19 19 20 16 14 15 17 16 15 13 13 12
4 4 6 8 8 5 8 14 18 25 28 15 7 4 3 1 4 4 5 6 6 4 3 12 8 1 4 8 11 13 16 19 22 21 19 16 15 15 15 15 15 14 14 12
3 3 14 6 10 11 12 19 17 29 14 3 4 4 4 3 3 2 3 4 3 7 12 7 1 5 8 11 13 15 18 19 20 19 15 15 15 15 15 16 15 16 16 18

GFSNW_850_spd_108.txt.gz
Wind_Speed
46 25 28 24 21 19 26 16 3 11 14 2 1 2 4 3 4 2 1 2 2 2 3 4 2 2 1 5 5 5 2 1 2 3 2 0 2 2 2 4 4 0 3 4
40 25 30 26 24 26 27 17 7 10 12 3 2 2 3 2 4 2 2 2 3 3 1 3 2 2 2 7 5 4 4 2 3 5 4 5 4 3 3 4 2 1 0 4
24 28 30 26 23 29 16 10 3 4 8 4 4 4 4 3 2 4 2 1 1 2 2 5 2 2 2 5 6 10 4 3 3 4 4 3 2 2 2 2 2 4 2 6
20 32 28 24 24 28 17 6 3 6 3 4 4 4 4 5 3 1 3 1 2 1 2 1 3 2 3 2 8 6 3 1 3 4 5 2 2 3 2 4 3 2 6 7
26 33 28 25 25 28 16 8 5 5 4 12 6 3 4 4 2 4 5 4 1 1 2 2 2 1 2 2 3 2 3 2 4 3 2 4 2 5 6 4 2 4 4 4
31 33 31 26 26 27 8 9 9 8 4 3 5 5 6 5 6 3 5 5 2 3 3 1 2 3 2 1 2 1 2 2 4 2 2 4 3 4 1 5 3 3 3 3
33 33 28 24 22 23 7 13 13 5 2 2 4 6 3 6 4 5 4 4 1 2 3 2 5 3 6 3 2 1 2 3 1 2 2 3 1 5 5 10 2 6 7 7
34 28 26 21 18 15 15 10 7 5 3 4 4 8 5 9 5 1 4 3 2 5 0 2 3 2 2 1 2 2 2 3 2 2 2 1 0 5 3 1 3 3 4 12
34 27 24 17 12 11 15 10 8 3 11 1 5 5 8 4 3 2 1 3 2 0 1 1 1 2 3 1 2 1 2 2 1 3 2 3 2 5 6 2 1 3 2 7
32 25 22 18 14 12 13 10 11 5 9 4 9 3 6 6 3 3 2 1 2 1 1 2 1 0 1 2 1 2 1 1 1 2 2 1 3 10 5 3 2 12 11 12
27 24 17 14 15 12 14 10 13 5 8 9 5 6 7 6 5 4 4 3 1 1 2 2 2 2 1 1 1 2 2 2 1 1 3 1 8 2 2 2 5 7 10 10
30 26 20 14 15 8 11 13 11 10 10 11 12 11 9 6 6 9 4 3 2 2 2 1 2 1 1 2 2 4 1 3 3 3 3 2 3 2 3 2 1 6 6 5
32 29 21 14 15 12 12 15 17 17 22 15 7 9 7 5 6 6 5 4 3 2 3 3 1 2 3 2 1 1 3 1 2 3 3 2 3 6 5 6 3 4 5 4
37 31 22 15 9 14 12 19 19 10 11 7 4 6 6 6 5 3 5 14 9 9 7 3 1 1 1 2 3 2 3 3 2 1 2 3 4 4 2 2 2 2 4 3
39 31 22 18 11 11 15 21 11 9 2 6 8 8 7 6 6 7 9 11 11 6 3 2 2 2 1 1 2 1 2 1 2 2 3 2 5 4 3 3 2 1 1 2
41 31 27 16 14 13 21 5 7 6 15 9 3 5 4 6 9 10 9 7 6 4 3 1 1 1 1 2 3 3 3 3 0 2 6 8 6 4 3 3 3 3 3 1
37 36 25 18 15 19 12 4 10 17 7 5 5 3 5 9 6 5 7 6 4 3 2 1 1 2 2 2 2 10 5 4 3 3 5 3 2 4 6 4 5 5 5 5
38 34 25 17 18 24 9 1 18 15 5 4 4 2 5 9 4 3 2 3 2 2 1 1 2 1 2 3 5 8 4 3 7 7 6 7 8 7 6 6 5 6 7 8
40 34 22 19 16 8 7 9 16 8 2 6 4 5 4 10 5 4 3 2 2 2 1 2 2 2 3 5 12 11 6 4 5 8 7 5 5 4 5 7 8 9 10 11
45 32 11 7 13 12 13 8 8 4 1 3 3 7 2 8 5 3 4 2 2 2 4 2 2 3 6 7 8 6 4 5 5 7 5 7 10 11 13 14 13 14 15 15
33 14 6 20 27 12 4 3 3 3 1 4 5 5 6 6 3 3 4 3 2 1 4 3 3 3 4 11 7 4 3 4 4 7 10 12 13 15 17 16 16 17 17 18
28 15 25 23 5 4 4 2 1 2 5 6 8 7 7 7 5 5 4 3 1 3 6 2 3 3 8 11 7 4 3 4 5 7 9 10 13 15 18 20 21 21 20 20
34 12 8 8 4 2 8 8 3 3 10 11 11 4 6 6 3 4 3 3 4 3 1 3 4 6 12 9 6 3 4 7 9 11 13 15 14 13 16 18 18 19 19 20
9 10 6 7 5 5 5 4 5 8 14 26 23 9 5 5 3 3 4 4 2 3 4 5 3 15 13 9 5 5 7 10 12 14 16 18 19 16 14 17 18 19 18 15
6 6 6 5 5 4 7 16 16 15 31 29 15 9 5 2 3 2 3 4 3 5 4 3 11 15 11 7 5 7 10 12 15 17 19 18 18 15 17 16 16 17 17 16
4 3 5 8 7 4 7 13 19 27 32 17 6 3 4 1 4 3 5 7 6 4 3 11 17 12 6 4 7 9 11 14 18 19 19 18 16 15 16 16 14 17 15 15
2 2 7 5 8 8 10 19 19 32 16 3 4 4 5 4 3 1 4 5 3 6 15 16 9 4 3 6 8 10 13 15 18 20 19 17 15 15 15 16 14 16 16 16

GFSNW_850_spd_111.txt.gz
Wind_Speed
28 8 44 35 31 22 29 20 3 16 16 2 0 3 3 3 7 3 2 3 0 2 2 5 2 2 4 2 4 3 3 1 2 2 6 2 0 2 1 3 4 4 3 3
8 16 33 33 32 28 33 15 7 14 12 3 1 2 3 2 6 4 3 2 2 4 1 2 3 3 2 5 3 4 5 3 3 6 4 4 5 3 2 4 3 3 3 4
11 22 37 34 29 31 21 9 3 4 7 4 3 5 3 3 3 4 3 2 2 3 3 5 3 2 2 4 5 8 3 1 2 4 4 3 3 4 3 3 3 2 2 4
7 29 36 30 26 33 16 4 3 7 5 5 3 4 5 4 3 0 3 2 1 2 2 1 3 2 4 3 8 5 3 1 2 3 5 3 3 3 3 4 4 4 1 2
25 31 29 25 26 32 8 4 5 5 4 12 6 3 5 5 3 3 3 3 3 2 3 2 2 2 3 2 4 4 4 2 4 5 4 1 3 6 5 5 3 5 6 3
24 25 26 22 23 30 4 3 7 5 3 2 5 4 5 6 7 3 2 8 4 3 3 5 2 2 1 1 2 2 3 2 4 2 2 3 4 6 2 3 3 3 4 3
15 28 30 22 17 26 3 6 7 4 1 2 3 6 2 6 3 5 3 7 4 4 3 10 8 6 4 2 5 3 2 3 1 1 2 3 0 6 4 6 2 2 4 5
27 31 30 23 17 25 4 6 1 2 3 4 4 6 5 9 6 3 4 1 6 5 5 3 2 1 2 1 3 3 2 2 1 2 2 1 3 5 3 3 3 2 4 6
26 32 36 26 20 27 7 1 1 1 10 2 7 5 6 4 3 2 2 3 3 4 2 2 2 2 2 2 2 1 2 2 0 1 3 2 1 3 6 2 1 1 5 7
24 29 30 22 18 25 6 3 5 2 8 3 9 3 6 6 4 3 2 4 3 3 2 1 2 2 2 2 3 2 1 1 2 1 2 1 3 8 3 3 3 7 5 10
26 28 24 15 12 8 7 6 8 1 7 8 5 5 5 6 5 4 7 4 1 2 2 2 2 2 2 2 1 2 3 3 2 2 2 1 6 2 1 2 6 7 9 10
26 27 20 12 11 6 10 5 8 6 8 10 12 10 7 4 4 6 6 2 3 4 3 0 2 1 2 2 1 2 0 3 2 4 3 2 4 3 3 2 2 6 6 6
29 28 24 15 15 6 8 7 12 11 16 12 7 8 6 5 5 5 4 4 5 4 3 4 2 2 3 3 2 0 2 1 2 2 2 1 2 5 5 5 3 6 4 3
31 28 26 15 11 6 10 11 14 8 8 6 3 5 4 4 3 2 4 7 9 10 6 3 2 2 1 2 2 2 4 1 1 1 1 2 2 1 3 4 4 5 4 1
32 29 24 16 9 9 8 14 10 5 1 6 7 7 5 4 4 6 8 10 14 6 4 2 1 1 1 1 2 2 3 4 3 2 3 1 2 3 4 5 7 6 6 6
35 32 25 17 12 8 13 5 9 6 9 7 3 4 3 6 5 6 7 7 5 3 3 1 1 1 0 2 2 3 5 3 2 3 2 6 7 4 3 4 5 5 7 6
36 34 28 20 14 14 9 2 7 14 6 3 5 3 4 7 4 5 6 5 4 2 3 1 1 0 1 0 3 7 10 5 4 1 3 0 1 3 6 7 7 7 8 8
39 33 28 22 18 17 11 3 13 13 3 4 4 2 5 7 3 2 2 2 2 2 2 2 2 2 1 3 6 9 10 6 6 6 5 6 8 7 7 8 8 8 9 10
41 35 27 21 12 12 11 5 13 7 3 7 4 6 4 10 4 4 3 2 2 2 0 2 4 2 4 6 9 15 12 6 5 6 7 6 4 6 7 8 9 11 11 11
40 35 12 7 11 9 12 8 7 5 4 3 3 8 3 9 5 4 5 2 2 1 3 3 2 3 10 7 8 13 11 7 6 5 3 6 7 9 11 13 15 16 18 18
39 12 7 17 23 12 6 4 3 4 1 5 6 6 6 8 3 2 4 3 1 2 3 3 2 3 5 14 12 10 7 4 3 4 5 6 9 12 14 17 17 18 19 19
30 15 25 23 7 4 2 3 0 2 6 8 10 8 7 7 5 4 3 3 2 3 5 2 3 3 6 16 13 9 6 3 3 4 6 8 10 12 14 16 18 18 19 20
36 9 6 8 5 3 8 8 4 2 10 13 12 5 7 6 4 4 3 4 4 1 2 3 4 4 12 14 11 8 4 3 6 8 10 13 15 16 17 18 15 17 19 19
10 10 7 7 6 6 5 5 5 9 17 28 24 10 5 5 3 3 4 3 1 3 4 5 3 13 16 13 9 6 3 6 9 12 14 17 19 19 19 17 15 18 20 19
8 8 7 7 5 3 7 14 15 13 36 36 15 9 5 2 4 1 3 4 3 5 5 3 6 17 17 12 7 3 6 10 12 15 18 19 19 19 19 16 16 18 18 19
6 4 4 7 6 4 7 11 16 29 35 23 7 4 4 2 4 3 6 8 6 4 3 6 18 17 13 8 4 6 8 11 14 17 20 21 21 19 18 18 17 18 19 19
5 1 4 8 5 10 10 18 19 38 24 3 5 5 5 4 3 2 4 5 3 6 11 20 17 12 7 4 4 6 8 12 15 18 20 22 22 19 18 18 17 18 18 19

GFSNW_850_spd_114.txt.gz
Wind_Speed
47 17 8 28 28 28 27 16 3 20 18 3 1 2 4 3 6 3 3 3 2 2 2 4 2 2 5 3 3 5 1 1 2 4 4 3 2 4 2 3 3 4 3 3
29 14 33 24 39 31 31 10 6 15 12 2 1 2 1 2 6 4 2 2 0 2 2 3 2 2 2 4 4 4 4 3 3 7 5 5 4 5 3 3 2 4 3 2
14 34 17 30 35 27 19 7 3 2 6 2 2 4 3 2 2 3 4 2 4 3 3 4 2 2 1 4 5 7 2 2 2 3 2 3 5 7 7 4 4 1 3 4
26 14 23 26 29 28 8 2 3 6 5 4 3 2 3 4 3 1 3 2 3 3 2 1 3 2 4 4 9 6 3 3 3 2 4 3 4 6 10 11 6 4 2 5
8 18 22 28 28 25 2 2 4 5 2 5 5 0 4 4 3 2 1 3 4 4 4 2 3 1 3 1 3 3 3 1 2 6 5 5 4 9 7 7 6 4 5 6
20 20 20 21 27 16 2 4 6 3 2 2 4 4 5 6 7 3 1 7 3 7 3 4 5 7 6 4 2 2 1 2 3 3 4 3 5 8 4 2 2 3 4 3
16 14 22 21 20 16 4 5 1 2 2 2 2 4 2 6 3 5 3 4 3 5 10 11 8 9 7 7 4 2 4 3 2 1 3 4 3 4 3 4 1 3 4 6
19 17 22 21 14 21 6 4 4 1 3 2 3 4 5 10 7 4 4 4 5 8 5 2 2 1 3 2 3 4 3 1 2 2 3 2 1 3 2 1 1 3 4 7
12 17 22 22 15 18 10 4 4 3 9 3 4 4 5 4 3 3 3 5 4 3 2 1 1 1 1 1 1 2 2 1 1 1 3 2 0 2 1 3 2 6 5 6
12 18 25 21 17 17 10 3 2 3 6 3 5 2 5 6 4 3 3 4 2 2 2 1 1 1 2 0 3 2 1 1 3 1 2 3 3 8 2 3 3 6 7 10
15 20 24 22 13 11 15 5 2 2 5 6 3 3 5 6 5 4 6 4 1 2 2 2 2 2 2 1 2 2 4 4 2 0 1 2 6 2 1 1 3 5 9 9
13 15 25 21 13 10 11 2 3 3 4 8 11 10 7 5 6 5 7 2 2 4 3 1 2 1 1 2 2 1 1 4 3 4 3 2 4 3 3 3 3 7 9 8
24 18 24 22 14 6 6 3 7 5 12 9 6 7 7 5 5 5 4 3 4 3 3 5 2 2 3 3 4 2 1 3 2 2 1 2 1 2 3 5 5 6 8 6
30 23 26 17 14 6 6 3 9 4 6 5 2 4 4 4 3 3 4 3 6 7 4 2 2 2 4 3 2 3 4 4 3 1 1 1 1 2 5 5 4 6 6 7
24 22 24 18 15 9 8 7 10 2 2 5 6 8 5 4 5 5 6 7 9 4 3 2 2 2 2 0 1 3 7 6 4 4 4 3 2 1 3 5 8 8 8 7
25 27 24 22 13 10 7 6 13 6 5 5 3 4 4 6 5 6 6 7 4 2 3 1 1 2 2 2 3 4 8 8 8 5 6 3 3 2 0 5 7 7 8 8
23 28 26 23 15 14 6 2 3 13 7 2 4 2 4 5 4 4 4 3 2 2 2 1 1 1 0 2 3 3 11 10 9 7 3 2 4 4 4 6 8 8 7 8
28 32 27 24 17 18 11 3 8 13 3 3 3 2 4 6 2 2 2 2 2 1 1 1 1 1 1 3 7 6 12 11 9 6 3 4 6 8 6 6 9 9 8 9
36 35 30 24 15 10 11 3 9 8 4 5 3 5 4 9 4 3 3 2 1 1 1 2 4 2 5 6 10 16 17 11 6 7 5 5 5 7 7 7 7 10 11 12
40 36 13 8 14 11 12 6 4 6 6 5 3 8 4 9 5 4 3 2 2 0 3 4 2 4 15 8 9 12 17 12 7 5 4 5 6 7 8 10 12 14 16 18
34 13 7 16 24 11 9 6 5 5 2 8 8 7 6 10 3 3 5 3 1 1 3 3 3 3 4 13 11 14 14 10 6 4 3 3 5 7 10 11 13 13 15 17
29 14 23 23 7 4 4 4 1 4 6 8 10 9 7 8 5 4 4 3 2 3 6 2 3 3 5 17 17 15 11 8 5 3 3 5 7 9 12 15 17 17 15 17
26 9 9 8 6 4 9 9 4 2 10 14 14 5 8 6 4 5 3 4 4 3 2 4 4 3 11 18 16 13 10 7 4 3 5 8 11 13 16 18 18 18 18 18
10 9 7 6 6 7 5 4 6 10 16 30 25 9 6 5 3 3 4 3 3 4 3 6 3 13 18 18 16 12 9 5 3 5 8 12 15 16 16 18 18 18 17 19
9 8 6 8 6 2 6 12 18 13 37 40 16 9 6 2 3 2 4 4 5 6 5 3 8 19 22 20 16 11 6 3 4 7 11 13 16 18 18 16 17 15 17 20
10 7 2 1 3 3 7 10 13 29 39 28 6 4 4 2 4 3 7 8 7 4 3 7 20 24 21 17 13 8 3 3 6 9 12 16 18 18 19 17 14 13 17 18
8 4 12 13 2 6 11 17 18 38 33 4 5 5 5 4 3 3 4 5 3 8 12 22 24 23 20 13 8 4 2 4 7 10 13 16 17 17 16 16 13 11 13 16

GFSNW_850_spd_120.txt.gz
Wind_Speed
42 42 35 33 38 43 22 11 4 11 14 3 2 1 1 3 4 2 2 2 2 1 3 2 1 1 4 2 6 5 3 3 5 2 2 3 3 10 6 4 5 4 2 5
35 36 31 30 35 25 17 8 8 11 4 2 0 1 1 1 3 1 2 2 1 2 3 1 1 3 2 5 5 6 7 3 6 1 3 6 6 15 4 3 3 15 4 4
24 23 18 29 19 18 16 9 3 3 1 2 2 2 3 5 5 3 4 2 1 2 4 4 1 3 1 4 5 7 3 4 7 6 3 6 9 20 18 7 6 9 11 16
9 10 14 21 19 8 5 5 3 5 3 4 1 2 1 5 2 4 7 1 1 2 2 1 2 3 4 0 6 4 3 5 5 4 4 5 15 14 18 19 13 8 10 14
5 4 12 15 12 17 12 5 7 5 4 2 4 2 4 5 2 2 1 3 4 3 4 3 3 2 4 3 3 2 3 2 3 5 7 7 17 18 14 14 11 10 12 11
7 6 9 6 3 7 10 12 11 7 4 7 4 2 3 5 4 2 2 2 6 7 4 4 5 5 3 2 3 4 2 2 2 1 6 5 5 11 9 5 10 7 10 7
10 9 9 7 6 14 11 10 5 3 4 5 2 3 1 5 1 1 1 1 2 1 6 6 4 4 3 2 4 4 3 2 2 2 4 4 1 2 3 5 7 9 8 11
8 7 8 9 4 4 9 9 4 3 4 5 4 6 4 6 4 3 2 3 5 8 0 1 1 1 2 2 2 3 3 2 2 1 4 3 3 3 2 3 6 9 10 11
8 9 8 8 7 8 4 6 6 4 9 5 6 5 6 4 3 2 1 4 6 4 1 2 1 1 2 0 2 1 1 1 2 1 2 1 3 3 1 1 3 8 10 10
6 10 12 12 7 5 8 5 3 1 5 7 10 3 6 5 3 2 2 4 3 3 2 2 2 1 1 2 1 0 1 2 2 2 1 1 1 3 1 3 4 2 5 8
6 7 10 11 8 6 9 11 4 1 2 10 10 8 8 7 5 3 6 5 3 3 3 2 1 2 1 2 1 2 2 2 2 1 1 2 2 1 2 4 3 3 5 6
10 7 6 9 12 8 9 12 8 4 2 6 10 9 10 9 9 5 11 1 3 3 3 2 1 2 2 2 2 2 3 2 1 3 1 1 0 3 4 3 3 3 3 4
11 10 14 11 11 13 9 10 8 5 3 5 7 7 8 9 9 9 5 4 6 4 4 2 1 4 2 3 4 2 4 4 3 2 6 6 5 4 4 4 3 2 2 3
13 15 17 17 10 15 8 9 11 8 2 2 5 8 8 8 9 9 9 4 7 6 5 2 2 2 3 2 2 3 1 8 4 3 3 4 7 8 6 5 2 1 2 3
12 9 9 14 13 15 9 12 12 11 5 1 2 8 8 9 8 9 10 9 8 6 3 3 2 1 3 1 2 5 11 6 6 3 10 5 8 13 9 6 3 2 3 4
9 7 3 9 12 15 11 5 10 13 8 3 2 3 7 9 8 7 8 11 9 5 3 3 3 3 2 3 3 6 16 12 8 2 11 6 11 12 9 6 4 3 4 6
12 8 12 12 13 15 13 6 7 11 10 5 2 3 5 9 8 7 6 8 5 4 3 4 3 4 5 3 5 4 14 15 13 10 16 8 12 7 11 8 7 7 6 7
13 11 12 16 15 16 17 17 8 9 8 5 2 2 4 11 5 5 7 5 5 4 3 2 4 5 4 5 14 8 14 17 15 18 14 8 13 11 11 9 9 9 10 9
13 13 14 20 21 14 11 13 7 13 7 5 4 5 4 13 5 5 6 6 3 3 3 4 5 4 7 10 13 20 24 21 20 20 14 12 11 11 10 9 9 10 11 12
15 13 12 7 8 16 13 8 4 8 10 9 4 6 3 9 6 4 5 3 2 3 3 6 4 5 21 17 15 22 27 23 24 23 15 14 13 12 10 9 9 9 11 12
27 14 8 7 19 15 11 6 6 8 5 9 9 11 6 11 4 3 6 3 3 3 3 4 3 5 6 17 23 21 27 25 21 22 16 14 11 11 9 7 6 8 11 14
24 12 14 13 8 6 6 5 3 6 6 8 9 7 7 10 7 4 5 4 3 4 8 3 4 5 8 17 25 24 29 24 22 17 14 13 11 9 6 6 8 10 13 15
25 13 9 9 10 6 8 9 5 4 10 14 12 6 10 7 6 4 3 5 5 9 4 5 6 3 14 22 25 27 29 24 20 17 14 12 8 6 6 7 9 11 12 13
12 11 8 7 7 8 8 6 6 9 16 27 24 6 4 5 5 3 5 3 5 5 5 7 3 17 21 28 28 32 30 25 21 17 14 10 7 6 6 8 9 9 10 11
11 9 7 9 9 5 8 14 10 14 25 35 18 5 3 2 3 3 4 5 6 7 6 3 8 26 31 34 33 32 29 25 21 16 12 9 7 5 5 5 6 7 8 9
9 12 5 2 7 5 6 16 12 19 28 24 7 5 4 5 4 5 9 7 7 4 4 8 21 31 36 37 34 29 25 23 18 14 10 8 5 2 2 3 4 6 6 7
10 5 18 18 6 13 14 17 19 29 29 4 5 6 6 4 3 5 5 5 3 4 11 18 29 36 39 37 32 28 25 20 16 12 10 7 5 2 1 2 4 4 5 7

GFSNW_850_spd_123.txt.gz
Wind_Speed
22 23 30 21 29 26 8 8 3 7 8 3 3 4 2 1 3 2 2 2 3 3 3 1 1 3 3 4 10 6 3 4 5 9 5 7 3 11 9 5 7 3 2 4
26 25 28 18 22 7 5 5 4 3 9 3 3 5 4 3 1 4 2 2 2 2 2 3 2 1 0 4 6 8 7 5 6 5 3 12 6 19 15 4 3 18 5 4
18 23 28 24 12 2 4 2 2 2 4 3 2 4 4 4 4 5 2 1 2 1 2 2 2 3 1 5 4 8 5 5 8 6 5 7 10 18 20 12 4 8 11 13
10 12 11 9 2 7 1 1 2 2 2 3 4 1 2 4 2 1 3 2 2 4 2 3 3 3 2 3 5 4 3 3 5 4 6 10 16 16 18 15 11 7 6 11
10 4 7 4 12 11 1 1 4 2 3 4 6 2 4 3 2 2 1 0 2 3 2 4 5 6 5 4 5 2 2 1 2 1 3 3 16 18 15 14 13 16 15 12
14 7 3 6 12 11 5 6 9 1 4 6 5 3 4 5 2 1 1 2 1 3 3 5 4 5 3 2 5 5 4 4 4 0 5 3 2 12 9 7 14 6 9 9
6 7 10 8 7 16 15 6 1 4 3 6 2 4 4 5 1 2 1 1 2 2 1 4 4 3 3 4 2 3 6 6 4 4 7 2 1 4 4 9 11 12 11 13
5 5 11 7 6 8 14 18 7 4 2 4 4 6 5 6 2 1 2 1 0 2 3 3 5 3 4 3 2 3 3 4 3 4 4 3 3 2 3 4 6 10 11 12
5 7 7 8 11 9 7 14 16 6 2 6 3 9 10 5 4 4 1 0 3 1 2 2 2 2 3 2 2 2 3 2 3 3 2 1 5 4 3 3 2 8 11 12
3 4 3 4 5 8 7 7 15 11 6 1 6 4 7 5 4 1 3 4 3 3 2 3 2 1 2 2 3 2 2 1 1 2 2 1 3 1 1 3 3 5 8 10
8 6 5 3 2 2 5 8 9 13 6 6 9 5 1 4 6 4 6 4 4 5 3 3 1 3 1 3 2 2 2 2 1 1 2 2 3 2 2 6 6 4 5 8
10 10 6 3 4 3 3 7 5 9 5 7 11 13 10 11 7 4 8 2 1 3 4 2 2 3 2 3 1 2 3 2 2 3 3 3 3 3 6 5 5 4 3 2
12 10 8 9 9 7 5 7 5 5 6 8 6 7 11 12 11 10 5 5 3 2 3 4 2 5 1 3 4 2 5 5 3 2 7 6 6 6 5 4 4 3 1 1
12 12 11 12 12 11 8 8 6 4 1 4 2 10 10 11 11 12 12 5 5 5 2 4 3 3 3 2 3 3 2 10 7 6 4 5 10 11 9 7 4 4 2 1
11 10 10 11 15 14 8 8 7 5 6 1 7 12 14 11 10 10 11 9 4 3 3 4 3 2 3 3 3 8 12 9 6 3 10 9 5 17 12 10 8 6 4 3
10 7 5 4 10 10 8 4 9 11 10 3 2 5 4 9 8 7 8 8 6 3 3 4 4 2 3 3 4 8 15 13 15 4 8 8 8 15 12 10 8 5 3 3
10 7 6 6 8 10 8 4 4 2 10 3 2 2 1 5 4 4 4 6 3 3 4 5 3 3 5 3 5 5 14 16 13 10 14 10 14 10 13 10 8 7 5 4
10 10 8 13 12 12 14 15 5 0 7 4 2 1 2 8 5 4 5 2 3 5 4 3 4 3 6 6 16 10 12 15 15 16 12 6 13 12 12 10 8 6 5 6
8 9 8 15 14 8 10 12 11 7 9 4 5 4 2 7 4 2 4 3 3 3 4 4 5 5 8 11 14 18 21 20 17 18 14 12 13 13 11 10 9 6 5 7
10 13 6 5 6 10 6 6 6 8 9 8 5 6 4 9 8 5 4 3 3 3 4 5 5 8 25 23 16 14 22 20 23 23 17 16 14 14 12 9 8 8 8 8
15 9 7 4 11 12 7 6 6 9 5 11 11 18 7 13 5 4 7 2 2 3 3 4 4 5 6 24 35 21 24 24 24 20 19 18 15 14 12 10 9 8 8 10
18 8 12 11 7 6 5 5 6 7 7 12 11 10 8 11 9 5 6 3 2 6 8 3 4 5 11 10 24 26 27 26 23 21 19 18 15 13 12 10 9 8 9 11
21 8 9 9 8 9 8 11 5 4 8 12 11 5 8 7 7 4 4 6 6 4 4 5 6 1 8 14 23 26 27 27 25 22 20 18 16 14 11 9 8 8 9 10
14 10 8 8 7 7 7 7 5 7 9 22 22 8 6 5 5 2 5 4 3 5 5 6 4 15 18 19 25 31 31 31 29 26 22 19 16 13 9 8 8 7 7 8
9 10 8 10 10 6 5 9 7 7 18 27 13 6 4 3 5 4 2 4 7 7 6 4 4 14 25 28 32 33 35 33 29 25 22 19 15 11 9 7 7 7 7 7
11 11 5 2 9 6 4 10 6 14 24 17 5 4 4 6 5 6 10 4 7 4 4 7 8 19 27 32 33 34 34 31 27 24 20 17 13 10 9 7 6 6 5 5
9 7 16 11 4 11 10 14 14 23 21 4 4 7 8 4 4 5 6 6 4 4 7 8 13 22 29 33 34 35 33 30 27 23 19 16 13 11 9 7 5 4 3 3

GFSNW_850_spd_126.txt.gz
Wind_Speed
12 14 13 20 15 8 13 4 1 3 6 2 2 3 3 1 4 2 2 2 2 3 4 1 1 2 4 5 7 6 5 3 5 4 6 4 2 6 6 3 7 4 1 4
8 10 15 12 2 16 15 3 3 5 8 1 3 5 7 6 3 5 2 3 2 3 3 1 1 5 3 3 4 5 5 4 5 4 2 2 6 12 15 2 2 16 3 5
4 7 6 7 6 16 11 3 4 4 4 5 1 7 5 5 5 4 2 2 4 3 0 3 2 2 2 1 4 7 3 4 5 3 4 4 9 16 17 13 4 6 11 11
4 4 3 3 8 15 7 2 2 2 1 0 4 3 2 4 2 1 3 2 2 4 2 4 3 4 2 5 3 5 1 3 4 1 2 7 12 13 15 13 12 7 11 9
4 2 6 11 17 10 8 4 3 4 4 1 3 0 2 2 3 2 2 2 3 4 4 4 5 5 4 3 4 1 1 3 2 3 3 2 10 13 11 11 11 7 10 6
3 1 3 9 13 11 4 7 5 7 0 2 3 2 4 3 1 1 2 7 4 3 3 7 7 6 4 3 1 3 1 3 4 3 5 3 3 7 7 4 11 6 8 7
5 6 6 5 6 11 12 11 5 5 1 3 2 1 1 2 2 3 2 5 5 3 5 11 12 13 10 9 4 6 3 4 2 4 6 2 2 6 1 6 9 10 10 10
6 5 5 4 4 3 9 12 7 3 3 3 3 3 2 3 2 0 1 2 2 2 6 3 4 3 4 7 6 4 2 3 2 1 2 3 3 3 1 3 4 9 8 10
4 3 2 5 5 5 5 5 9 4 4 3 8 2 3 3 4 2 3 1 1 3 2 2 3 2 3 2 2 6 5 6 2 1 1 1 3 4 1 5 1 6 10 9
9 7 5 5 8 6 4 5 6 4 2 3 1 0 2 5 4 1 3 3 3 1 2 2 2 2 1 2 3 1 2 2 2 2 1 2 5 5 1 1 0 4 9 13
10 9 7 5 7 5 7 4 3 4 2 6 4 7 4 4 5 2 4 2 2 4 2 2 2 1 0 2 3 2 2 0 2 1 1 3 7 3 2 6 7 5 6 9
12 10 8 5 6 7 8 10 6 3 5 6 8 9 12 10 4 3 2 2 1 2 2 2 2 3 2 2 3 1 2 4 2 3 3 6 7 7 9 11 11 6 5 6
13 10 7 6 10 9 9 10 9 8 6 8 4 4 8 12 14 10 2 2 2 2 3 3 3 3 2 2 4 2 4 4 2 3 4 9 11 9 9 9 9 8 6 4
12 10 10 9 11 11 10 9 7 7 5 4 5 4 6 10 12 14 14 7 5 7 3 3 2 2 1 3 3 2 1 6 5 4 6 8 14 16 14 11 8 6 6 5
11 10 8 10 11 14 13 9 9 8 5 5 5 12 13 11 12 13 13 12 6 3 3 3 3 3 1 5 2 5 12 7 5 5 15 11 11 23 18 16 14 10 8 6
10 8 5 4 3 6 7 4 5 11 10 5 3 4 5 7 9 10 10 9 8 5 4 5 4 2 2 3 4 10 16 20 21 4 9 9 7 23 21 17 15 13 12 11
9 6 5 2 2 7 6 3 0 4 8 4 5 3 2 4 5 6 7 8 5 7 4 5 4 5 5 3 5 8 12 21 16 12 18 10 20 15 19 16 16 13 11 9
9 6 7 7 9 11 14 13 9 4 6 4 3 2 2 8 4 5 7 6 6 7 5 3 4 4 5 6 15 22 14 18 20 19 17 10 17 12 20 18 16 12 9 8
7 6 8 7 14 9 10 13 12 14 10 3 4 2 2 8 4 3 5 6 3 6 4 5 7 4 7 10 13 19 22 21 18 21 21 16 21 21 20 18 14 12 11 9
8 8 6 4 4 7 6 7 4 5 9 9 5 4 1 8 7 4 3 4 2 2 5 5 4 6 26 29 27 18 25 28 21 29 23 23 23 23 20 17 12 12 11 8
15 9 7 5 4 8 6 4 5 7 4 9 8 18 6 11 3 2 5 2 2 2 3 3 3 4 6 29 44 38 25 28 29 30 28 28 26 25 21 17 13 10 8 6
16 9 10 10 7 7 5 4 4 5 5 11 10 8 10 8 7 4 4 2 2 6 4 1 4 5 16 14 14 28 31 28 29 28 23 24 22 20 18 16 13 11 7 6
17 7 7 7 7 7 7 8 4 4 7 11 9 3 8 6 6 3 2 4 5 3 3 5 5 15 13 8 9 21 27 29 28 24 23 24 23 21 18 16 13 9 6 4
7 8 6 7 6 7 6 6 4 8 10 20 19 8 6 6 5 3 4 4 1 4 4 6 4 22 14 11 15 23 28 30 32 31 28 26 23 21 18 14 10 7 5 4
8 9 7 9 10 10 13 16 10 8 14 25 11 4 6 3 3 4 2 3 6 6 5 5 7 9 9 14 20 28 31 33 32 30 28 26 23 19 16 12 8 7 5 4
8 11 6 4 11 6 7 12 12 16 22 15 5 3 3 5 4 4 9 6 7 5 4 11 11 11 13 16 23 29 32 31 31 29 26 24 21 17 13 11 9 7 6 5
10 7 19 12 7 11 14 17 14 19 23 3 5 6 10 1 3 5 6 6 4 4 8 11 11 11 14 17 24 28 30 31 30 28 25 22 19 16 13 12 9 7 6 4

GFSNW_850_spd_129.txt.gz
Wind_Speed
16 14 10 10 6 24 26 11 3 8 10 4 3 2 1 8 5 2 1 2 3 2 4 1 1 2 6 3 3 5 4 3 4 6 4 5 2 5 5 2 6 3 3 4
13 11 8 8 13 19 20 8 6 8 12 3 3 2 4 6 2 3 3 2 2 1 2 2 3 4 5 4 1 0 3 3 5 8 3 3 4 9 13 6 2 11 3 5
6 4 6 8 18 23 11 4 3 6 6 6 1 3 1 2 6 3 2 0 2 2 3 4 3 1 4 4 2 6 1 3 3 2 3 3 6 10 13 9 3 7 10 9
1 3 1 7 18 17 7 5 2 2 3 7 5 5 2 2 3 4 3 2 3 3 2 5 2 4 3 2 3 3 3 3 3 5 6 3 4 9 13 12 11 7 10 10
3 4 6 9 12 10 9 3 4 5 5 10 7 5 5 2 1 5 4 2 4 5 3 2 2 4 2 1 4 1 1 3 4 4 6 3 3 9 9 9 11 5 10 7
6 5 6 6 6 11 5 4 1 2 3 5 3 3 3 4 3 2 4 5 4 3 1 5 8 9 10 6 2 2 1 1 4 4 6 3 4 2 4 3 10 7 6 5
4 4 6 6 3 6 10 8 3 3 2 2 1 4 6 5 3 4 2 6 4 3 7 12 13 16 17 13 9 8 2 2 2 4 5 4 4 4 2 2 7 8 9 10
3 4 4 5 4 1 4 8 3 1 1 1 5 5 2 5 6 3 5 3 5 6 9 3 4 1 2 6 7 7 7 0 3 1 1 5 2 4 2 2 2 6 5 8
5 5 5 4 4 4 1 2 5 0 3 3 3 2 1 2 2 5 3 6 3 4 2 2 2 2 2 1 2 5 3 2 3 2 1 3 3 3 4 2 1 4 8 7
7 6 5 5 4 5 4 2 3 2 3 4 3 4 4 3 0 1 3 3 2 3 2 2 2 3 1 1 2 3 2 2 4 4 3 6 3 6 4 2 4 7 9 10
7 5 6 6 4 5 3 4 4 5 3 7 5 6 6 5 5 3 1 3 2 2 1 1 3 1 3 2 4 3 4 4 3 2 3 6 10 4 4 5 10 13 11 11
9 7 5 7 6 4 6 5 5 6 6 6 9 13 13 14 10 7 5 3 2 2 0 2 2 3 3 2 3 2 3 5 2 6 5 3 12 3 6 11 13 10 11 10
10 8 7 7 9 8 7 6 6 7 6 8 8 5 7 12 13 11 6 5 5 3 1 2 3 3 3 2 5 3 3 4 2 3 2 6 12 8 10 11 10 11 10 10
10 9 8 7 8 10 8 5 5 5 2 3 4 5 6 5 11 13 14 11 5 4 4 3 3 2 3 3 4 4 6 6 4 5 6 4 12 15 14 12 10 9 8 7
10 9 8 8 9 10 11 9 9 8 5 3 7 13 14 13 11 11 12 13 11 5 3 3 3 4 2 4 2 5 11 7 6 6 14 10 6 23 19 17 13 9 7 5
10 9 7 6 5 8 9 5 5 9 10 3 2 4 4 5 7 8 9 9 9 6 4 5 5 4 3 2 4 10 15 20 22 8 10 26 8 16 22 19 15 11 9 7
10 8 7 7 3 7 5 1 2 2 7 3 5 4 2 1 3 3 5 8 6 6 4 6 5 5 6 3 7 8 13 12 21 20 13 10 15 19 24 19 16 14 11 9
11 8 8 9 9 9 11 9 5 1 4 4 1 3 3 6 4 4 6 4 6 7 5 4 4 3 5 5 16 28 27 23 19 23 23 18 19 20 26 22 22 19 15 12
11 8 9 9 10 8 8 10 10 11 9 3 5 3 4 8 5 4 6 7 3 4 4 5 5 3 6 13 18 24 21 17 25 27 23 19 22 25 28 27 24 21 19 16
12 11 7 6 6 8 2 4 4 6 8 8 6 7 3 11 8 4 3 4 3 2 6 5 4 5 25 39 45 40 24 23 22 30 27 24 27 30 31 31 25 22 20 18
19 10 7 8 7 7 5 3 4 4 4 8 8 17 6 9 3 3 7 3 2 2 4 5 3 4 9 25 26 29 37 29 33 31 29 34 32 32 31 28 24 23 21 18
18 13 10 11 6 5 3 3 3 5 5 7 6 7 10 7 7 3 5 3 1 6 2 1 3 6 21 16 15 16 15 30 32 32 28 29 31 29 30 28 26 22 20 17
21 7 7 8 6 5 6 7 4 3 6 10 10 2 9 7 8 3 3 4 6 1 1 4 5 20 22 15 17 15 13 20 30 32 28 25 28 29 30 28 24 21 19 15
7 10 7 7 6 8 7 6 5 9 6 16 16 6 3 4 4 3 3 5 2 3 4 6 5 18 16 15 12 11 12 19 28 31 29 27 31 32 29 25 23 21 18 15
9 9 7 8 11 11 12 20 8 10 13 22 9 3 5 1 1 4 0 2 5 6 5 4 9 13 17 15 13 11 16 22 28 30 30 30 31 31 29 25 22 19 16 15
8 10 5 9 11 7 10 19 23 15 21 16 6 4 3 5 4 6 9 5 7 5 4 9 17 21 21 15 12 11 18 22 26 29 29 30 31 30 27 25 20 17 15 13
9 7 22 20 12 16 21 19 19 22 25 3 4 7 13 2 2 5 5 6 4 10 17 24 23 16 14 13 12 10 17 24 26 27 28 29 28 26 25 23 20 17 14 12

GFSNW_850_spd_132.txt.gz
Wind_Speed
12 10 9 6 12 19 15 6 3 8 8 4 3 2 2 2 1 2 2 1 2 3 3 2 2 3 6 8 2 3 3 3 5 6 1 4 2 5 4 3 5 3 3 4
6 5 6 12 22 18 7 4 3 9 10 3 3 3 4 5 4 3 4 3 2 2 2 2 4 4 4 6 3 2 1 2 5 7 4 2 5 7 8 7 3 6 5 6
4 5 6 9 17 15 7 2 2 4 7 5 3 2 2 3 4 2 4 3 4 4 2 2 3 2 1 5 3 2 2 2 3 1 5 3 5 9 10 8 3 8 9 11
7 8 8 11 12 10 3 3 1 1 1 4 2 2 1 2 4 4 4 3 4 3 3 5 2 3 4 2 2 1 2 3 3 6 8 4 2 6 10 7 11 6 12 11
9 9 9 11 9 7 5 1 2 3 2 1 3 4 1 1 0 2 3 2 6 4 1 1 3 3 2 3 3 1 1 3 5 4 3 7 3 5 7 6 9 6 12 4
8 7 10 10 5 8 4 2 1 2 2 2 4 3 2 2 2 1 1 1 2 3 3 7 11 11 11 8 3 2 1 1 3 5 4 5 5 3 1 2 5 5 5 7
6 6 7 8 6 4 6 5 1 2 2 0 2 2 3 3 4 4 3 3 0 2 10 16 12 13 16 16 12 8 2 2 1 4 5 3 5 3 3 2 3 3 4 8
6 6 7 7 6 4 4 5 2 2 1 2 3 3 3 3 4 4 4 4 4 6 7 4 5 4 4 4 6 5 8 0 3 1 2 5 2 4 3 3 3 3 4 8
7 7 8 7 7 6 5 6 4 2 0 4 3 3 4 3 2 5 3 4 2 2 2 2 1 2 2 4 7 2 3 3 2 3 1 3 2 3 2 2 3 1 2 5
7 8 8 7 6 5 4 4 5 3 4 4 3 3 3 3 3 2 4 1 2 1 1 1 1 3 2 1 3 2 2 2 4 4 4 6 4 6 5 2 3 6 3 6
7 8 9 9 8 6 5 5 5 4 5 8 7 6 6 4 4 3 3 2 1 2 2 2 2 2 3 1 4 3 5 4 3 1 3 5 10 5 5 4 7 8 6 6
8 9 9 9 8 7 5 5 6 8 8 7 9 13 14 14 12 4 6 2 2 4 3 1 0 2 1 2 3 2 3 5 2 7 5 3 16 3 7 14 14 11 9 7
9 8 9 9 9 10 10 7 7 9 8 11 10 6 8 9 13 14 5 4 5 4 2 5 2 4 3 2 5 3 4 6 4 2 4 7 12 12 10 13 16 15 11 10
11 9 9 10 10 10 10 8 7 7 5 4 4 4 6 5 8 14 16 8 5 4 4 3 2 2 7 3 4 5 7 3 4 6 8 11 17 20 18 17 15 16 15 12
13 11 10 10 10 9 11 12 11 9 5 4 9 15 15 12 12 12 14 14 12 6 3 2 3 4 2 3 2 4 11 8 5 7 7 7 6 16 24 23 21 18 18 15
14 12 10 9 9 9 8 5 7 11 12 4 3 5 6 6 6 8 11 11 10 6 5 5 6 6 4 2 4 11 19 21 24 12 22 20 19 8 25 25 23 20 18 16
15 12 10 9 7 6 7 3 1 2 6 3 6 6 3 3 3 4 7 10 7 8 4 6 5 5 7 3 4 10 20 22 21 22 23 18 18 12 22 24 21 20 18 17
17 12 10 10 7 7 13 9 6 1 3 4 1 4 4 7 4 3 5 4 8 8 5 3 4 4 5 6 20 33 31 30 32 32 26 28 20 21 19 24 23 22 21 19
19 11 11 10 9 9 9 10 11 11 9 4 5 3 3 6 2 2 3 3 2 4 4 4 6 3 6 12 20 27 28 16 14 13 31 28 27 23 23 29 28 25 23 19
20 15 8 7 8 12 5 4 4 5 9 9 7 6 2 9 8 5 3 4 2 2 5 5 3 4 35 47 44 40 35 28 19 19 25 29 31 30 31 33 31 28 24 21
24 12 8 8 10 9 5 4 5 6 4 8 8 19 5 8 3 3 7 3 2 2 4 3 2 4 9 20 21 22 26 33 36 36 31 32 36 34 33 33 31 28 25 23
25 14 12 10 6 5 4 4 4 5 5 6 7 9 11 8 7 3 4 2 1 6 3 2 3 6 8 16 19 17 24 24 26 29 35 33 34 33 32 33 33 30 26 23
22 7 8 7 7 6 7 9 5 4 8 12 10 3 9 6 7 4 2 4 6 1 1 4 6 13 25 21 21 23 22 23 24 24 30 33 30 29 32 33 32 29 27 24
9 11 7 7 6 7 7 6 4 9 7 20 19 8 5 4 4 4 4 5 2 3 4 7 3 5 15 16 17 19 23 22 19 19 23 29 28 27 29 31 31 30 28 24
10 11 8 9 11 12 9 19 6 8 14 26 10 6 4 1 2 4 2 3 6 6 5 4 7 14 20 20 16 17 18 17 14 15 20 26 26 27 30 30 30 28 25 24
12 12 6 6 11 6 14 17 19 13 27 16 6 4 4 5 4 6 10 6 8 5 4 10 10 14 14 15 18 19 16 12 13 15 19 23 25 27 30 30 28 26 24 22
10 8 23 24 8 12 16 22 20 23 26 3 5 7 11 1 3 5 5 6 4 8 9 13 13 16 18 19 19 18 14 10 12 16 19 21 23 27 30 31 29 25 22 19

GFSNW_850_spd_135.txt.gz
Wind_Speed
5 5 8 15 23 18 5 3 3 7 3 4 3 1 1 2 2 3 2 1 1 2 1 1 1 3 7 3 1 3 2 2 5 6 3 4 2 4 3 2 5 3 3 5
3 5 9 14 21 18 8 4 2 9 2 3 1 1 2 2 2 2 2 2 1 2 2 2 3 4 5 3 1 2 1 2 5 7 4 1 2 5 5 5 3 3 5 6
5 8 12 14 15 15 8 2 3 5 8 5 3 2 3 0 2 2 1 2 2 2 2 3 4 3 3 1 3 3 3 2 4 3 7 2 5 7 4 4 3 7 5 12
9 9 11 14 13 12 5 3 2 2 2 4 2 1 1 3 1 1 2 2 2 2 2 3 2 3 5 3 2 1 2 3 4 9 14 6 6 5 6 3 6 3 12 12
10 8 9 12 10 9 5 2 1 1 1 3 2 3 2 2 2 3 2 2 2 2 3 5 4 1 3 4 4 1 0 3 4 5 5 0 5 7 6 1 3 3 10 6
11 9 9 9 7 7 3 2 2 1 1 1 2 3 3 4 2 4 4 4 2 4 6 8 12 12 10 7 2 2 1 2 4 5 7 6 3 4 3 3 3 3 4 5
11 9 8 8 8 5 5 4 0 1 2 2 4 2 3 3 4 3 4 5 3 3 9 12 10 13 18 15 13 11 2 3 1 4 7 4 4 2 3 4 7 5 4 6
10 9 9 8 7 6 5 5 3 1 2 4 4 5 4 4 7 4 6 7 7 9 7 3 3 2 2 4 5 7 8 1 2 2 1 7 1 2 2 2 5 3 4 5
11 11 9 8 7 7 6 6 5 3 0 5 3 2 3 2 2 5 5 5 6 3 2 2 1 2 2 3 4 3 4 1 3 2 1 3 3 1 1 2 4 3 1 6
11 11 10 9 7 7 6 5 5 4 4 4 6 4 4 3 2 2 4 3 2 2 1 1 2 3 3 2 3 4 2 2 4 4 4 8 5 4 2 2 4 3 2 5
12 11 10 10 9 7 6 6 5 5 5 11 9 8 7 5 3 2 1 3 2 2 1 1 2 2 3 1 4 4 6 4 4 3 3 6 6 4 5 3 3 5 2 4
11 12 11 10 9 8 6 5 6 8 8 9 13 13 13 13 11 3 4 2 2 4 1 1 2 3 1 3 3 1 3 6 3 8 6 5 14 10 8 9 6 9 8 6
10 10 11 11 10 8 9 7 7 11 9 12 11 8 11 15 15 15 6 4 5 3 3 3 1 4 3 3 5 3 5 5 4 1 3 10 24 27 23 15 13 10 10 9
12 11 11 11 10 9 10 9 6 6 8 4 4 4 5 6 7 10 16 12 4 4 3 3 2 2 5 3 5 4 7 9 5 6 10 15 26 24 23 21 16 14 13 11
15 13 11 12 11 9 10 11 11 11 6 4 9 17 16 16 15 13 14 16 15 7 3 2 3 4 2 4 2 5 12 8 6 8 16 9 6 5 16 22 22 19 18 16
19 16 13 12 10 8 3 5 5 12 11 5 3 5 7 7 8 10 12 12 11 7 5 5 5 6 4 3 4 13 20 27 28 5 11 19 16 14 14 22 24 21 20 19
20 19 15 13 11 9 10 4 1 1 6 4 7 5 3 5 4 5 7 9 6 7 4 6 5 4 8 3 4 9 13 22 27 27 25 19 24 14 10 18 24 23 20 19
22 22 16 13 10 8 14 12 7 3 5 4 2 4 3 8 5 4 6 4 6 6 5 3 5 4 5 5 23 26 25 22 23 27 27 30 25 17 15 18 25 27 26 23
25 23 15 10 11 8 10 11 11 12 10 4 5 3 4 7 3 3 4 4 2 3 4 5 4 3 6 13 14 21 23 17 21 22 18 17 25 31 23 24 30 32 30 27
28 21 10 7 8 10 7 6 5 7 10 10 6 6 2 10 7 5 3 3 2 2 4 4 3 4 34 37 38 41 34 33 29 31 30 29 27 26 28 31 31 32 31 29
32 15 10 9 11 11 6 6 6 6 4 8 7 21 6 10 3 3 8 3 1 2 3 3 3 4 6 7 11 14 12 14 17 20 28 29 28 30 30 32 34 35 33 31
34 18 14 13 8 7 5 4 5 6 5 8 10 9 13 8 7 4 5 3 2 5 1 0 4 5 14 12 18 14 14 18 22 23 25 25 26 27 30 30 34 35 32 30
29 8 8 8 8 6 7 10 5 5 8 13 13 4 11 7 7 4 3 4 5 1 2 5 5 10 12 14 19 20 18 20 23 22 22 18 19 21 26 28 30 32 32 31
14 12 7 7 6 7 7 7 5 9 11 25 24 9 6 5 4 3 4 4 2 3 5 7 3 6 9 14 16 20 24 25 25 23 19 18 14 19 22 24 27 31 33 31
10 11 8 11 11 10 11 16 11 11 21 33 13 7 4 1 3 3 3 3 6 6 5 4 7 1 8 10 13 17 19 23 24 22 19 14 13 15 20 22 24 29 33 32
12 12 6 5 10 5 12 23 13 20 32 21 7 4 3 5 4 6 10 5 8 4 4 10 6 10 7 8 13 17 21 24 25 21 17 17 12 14 19 21 22 28 32 32
11 9 23 21 10 18 17 19 24 28 30 4 6 7 10 3 3 5 6 6 4 11 9 9 15 11 9 13 19 19 19 20 22 25 21 15 15 14 18 22 24 28 29 27

GFSNW_850_spd_138.txt.gz
Wind_Speed
8 12 16 20 22 18 6 2 3 9 4 3 3 1 1 1 2 2 2 1 2 3 4 2 2 4 6 6 2 1 4 2 5 7 2 2 4 3 3 3 4 3 3 5
8 12 16 18 19 19 9 2 3 8 3 3 2 1 2 2 2 0 1 2 1 1 3 2 5 5 5 8 5 4 4 2 4 6 3 1 3 4 2 6 3 2 4 6
9 12 15 17 16 16 9 3 3 5 8 6 3 3 2 2 2 3 2 2 1 1 2 3 3 3 4 7 6 4 5 2 5 5 6 0 7 10 6 3 2 6 4 15
10 10 12 15 15 13 8 4 2 2 2 5 4 3 3 2 3 1 2 2 1 2 2 2 3 2 5 2 4 5 3 4 4 8 15 9 12 15 8 2 4 2 8 12
12 10 11 13 13 11 7 3 1 2 2 2 2 3 2 2 3 2 2 2 2 2 4 5 4 3 3 4 1 2 2 3 3 5 4 4 8 10 6 8 4 6 7 10
11 10 9 9 11 10 5 6 3 2 1 2 2 2 2 3 2 3 4 3 2 5 7 12 15 14 10 5 1 1 3 0 4 5 5 9 4 5 5 3 3 3 3 4
10 10 8 8 9 8 5 5 3 1 2 1 3 1 2 3 4 3 5 4 1 4 12 20 14 15 18 14 11 12 3 1 2 4 7 3 4 2 3 5 7 8 7 6
8 8 9 7 7 7 6 5 3 1 2 4 5 6 4 6 6 4 6 10 8 10 9 4 6 3 3 3 5 7 10 2 2 1 2 7 3 3 4 2 5 2 5 5
9 7 7 6 5 5 5 5 3 1 1 5 5 2 3 2 2 5 4 5 6 4 2 2 2 3 3 3 2 6 5 2 2 0 1 4 3 1 2 2 4 5 4 3
10 8 7 7 6 5 5 4 3 3 3 4 5 5 4 4 2 2 5 3 1 1 1 1 2 3 2 3 3 4 2 2 5 4 5 8 6 4 4 2 4 3 3 0
12 10 7 7 7 6 5 4 4 3 5 11 12 10 9 6 5 3 1 2 2 2 1 1 2 3 3 2 4 5 6 5 4 3 3 7 10 6 7 5 2 6 6 5
13 11 9 8 8 8 7 5 4 7 8 8 14 17 16 16 12 6 5 3 3 6 2 1 1 3 2 3 4 1 3 6 3 8 6 6 18 11 11 8 6 8 11 9
15 12 10 8 8 9 8 7 7 8 9 11 10 8 10 20 22 17 7 5 7 4 4 4 1 4 3 3 5 2 4 6 4 2 4 12 28 30 29 21 15 10 10 11
18 15 12 10 9 9 10 10 5 7 6 5 4 5 7 8 11 14 19 14 5 3 3 3 2 3 6 3 4 4 7 6 4 7 15 26 32 29 25 21 20 18 14 15
21 16 14 11 9 9 11 12 10 9 6 4 10 16 18 18 12 11 12 16 14 6 3 3 3 4 2 4 1 4 11 7 6 7 11 11 17 16 9 11 21 21 19 19
24 20 16 14 10 9 8 5 6 13 12 4 3 5 6 5 7 10 11 11 9 7 5 5 6 6 3 3 4 11 18 21 23 8 6 11 15 16 21 24 21 20 23 21
25 21 20 17 12 12 8 3 1 6 12 4 6 5 2 6 6 7 8 9 6 6 4 6 4 4 7 2 4 5 5 11 14 19 26 27 31 24 22 18 19 21 24 23
23 22 22 18 12 11 17 15 8 6 7 5 1 4 3 8 4 4 6 6 8 6 4 3 5 3 5 5 18 20 22 23 23 17 14 21 24 28 29 26 23 23 25 26
24 24 24 15 11 11 14 16 15 12 10 4 6 3 4 9 4 3 5 5 2 2 4 5 5 3 7 10 12 21 20 21 30 30 27 27 29 31 27 24 28 27 29 30
27 28 12 8 10 15 10 9 6 10 11 11 7 8 2 11 7 4 4 3 2 2 4 3 4 5 35 36 31 30 25 22 19 20 22 21 24 24 25 26 27 30 30 34
36 19 11 10 15 14 8 7 8 9 5 10 9 25 7 10 4 4 7 3 2 2 3 3 3 4 6 3 5 6 10 10 12 16 20 22 24 27 27 26 25 27 31 35
32 19 19 18 9 7 5 5 5 6 6 10 10 8 10 9 7 5 7 4 3 6 3 2 4 5 14 8 3 5 8 11 15 17 21 23 23 21 21 23 24 27 30 33
28 10 10 10 9 6 8 10 6 5 9 14 14 5 12 7 7 4 3 5 6 4 3 5 6 8 8 5 5 5 8 12 15 18 20 20 22 21 19 20 19 20 24 31
15 12 8 7 7 8 7 5 6 12 13 28 27 10 6 6 5 3 5 4 3 3 5 7 4 13 11 4 3 7 9 11 16 20 23 24 24 24 20 16 14 16 20 24
10 10 8 12 12 8 11 14 14 11 26 34 15 8 5 2 4 4 3 4 6 6 6 4 10 14 5 4 3 2 9 14 17 19 22 24 26 25 21 15 13 16 18 21
12 11 7 3 9 5 13 21 14 25 34 24 6 4 3 5 3 6 10 6 7 5 4 14 18 13 4 6 4 7 14 16 16 15 17 21 21 22 20 18 15 14 17 21
10 9 20 19 8 21 19 22 26 36 33 4 5 9 9 4 3 5 6 7 4 12 15 14 19 12 7 8 6 14 18 15 12 12 14 18 20 21 19 19 16 17 18 20

GFSNW_850_spd_141.txt.gz
Wind_Speed
11 15 18 18 16 14 5 2 2 8 4 3 3 2 1 1 1 0 1 1 2 2 1 1 2 3 6 6 4 3 4 1 5 7 2 3 4 3 2 2 3 3 2 4
12 14 15 18 16 15 5 3 3 7 2 3 2 1 2 2 1 1 0 1 1 0 2 3 4 4 3 5 3 4 4 1 4 7 3 2 2 3 4 4 3 3 2 5
12 12 13 16 16 15 7 2 2 5 7 6 4 2 1 1 0 1 1 2 1 1 1 2 3 3 1 4 5 4 4 2 5 5 6 1 4 6 8 2 3 5 4 10
14 12 12 14 13 13 7 5 3 2 2 4 3 2 1 1 1 1 1 1 2 2 1 2 2 2 4 1 1 1 1 4 4 9 16 11 14 13 11 6 6 4 4 8
12 12 12 12 12 11 9 4 2 2 1 1 1 3 3 2 2 3 2 2 1 4 5 6 4 2 3 5 1 1 0 4 4 5 5 2 10 13 11 8 5 8 9 10
12 11 10 10 9 10 5 5 3 1 2 1 1 2 2 3 1 3 5 4 1 3 7 10 13 14 11 8 6 2 1 1 5 5 5 10 5 4 4 3 5 4 5 5
13 10 10 10 8 7 5 4 3 1 1 1 3 2 3 4 5 3 4 5 4 3 9 16 13 12 16 14 9 9 2 0 2 6 7 2 5 3 3 5 8 7 8 6
13 12 9 8 8 7 5 3 2 1 2 5 5 7 6 6 7 4 8 10 9 9 9 4 4 2 1 2 4 7 9 2 3 2 4 8 1 3 4 4 5 4 5 4
10 12 11 9 7 7 5 4 2 2 1 5 4 3 4 2 2 4 4 4 4 1 2 2 1 2 2 1 3 6 6 3 1 1 2 4 2 2 3 3 4 7 6 4
11 10 11 9 8 7 7 5 3 3 4 6 7 5 4 4 2 2 4 2 1 1 1 1 2 3 2 2 3 4 4 3 8 8 6 8 7 3 5 0 4 8 10 8
13 11 10 11 10 7 7 7 6 5 6 11 11 11 10 6 4 2 1 2 1 2 0 1 2 2 3 2 3 5 6 6 5 4 4 8 7 6 5 4 3 4 10 11
15 15 11 11 11 9 8 7 8 9 10 9 12 14 14 16 13 3 3 1 2 4 2 1 0 3 1 3 3 1 3 6 4 8 6 6 12 10 8 9 8 6 11 12
18 18 15 12 12 10 10 9 8 9 9 13 12 8 10 18 22 17 5 4 5 4 4 3 1 4 3 3 5 3 5 6 4 2 3 9 21 24 28 31 30 19 12 13
21 19 18 15 13 12 12 12 8 7 4 5 4 5 6 7 9 17 22 17 6 4 4 4 2 2 7 3 4 4 6 7 4 7 14 19 9 6 10 14 18 20 21 18
24 22 20 17 14 13 13 15 15 12 7 4 9 14 16 13 10 11 14 18 18 10 4 3 3 4 2 3 2 4 11 7 6 7 8 8 15 9 12 15 18 16 16 20
24 24 21 20 18 15 10 7 7 16 12 4 3 5 6 6 9 14 13 13 11 8 6 5 6 5 4 2 4 11 23 20 23 8 7 19 29 32 29 27 24 16 13 16
24 24 22 22 22 19 12 4 2 8 15 4 6 3 4 8 8 8 9 11 7 8 5 6 4 4 8 3 4 9 18 21 21 20 19 19 22 17 17 18 20 19 18 14
23 22 21 24 25 18 21 19 9 8 9 6 2 3 3 11 6 5 8 7 9 8 5 4 5 4 6 6 17 14 16 13 19 18 14 20 24 26 26 25 25 23 24 20
20 19 20 23 16 12 15 19 20 18 14 5 7 3 3 12 5 5 7 6 3 4 4 5 5 3 8 11 14 19 15 13 13 22 20 20 19 17 16 16 18 24 28 26
24 25 14 8 9 18 9 10 8 13 13 11 7 8 4 13 8 4 6 4 3 3 5 5 4 6 29 36 30 26 23 22 21 18 15 13 19 20 22 21 20 23 24 24
35 18 11 10 17 14 8 7 8 10 5 11 11 28 7 10 4 3 8 3 3 2 3 4 3 5 7 15 13 9 10 13 13 12 13 14 17 18 20 23 22 21 21 25
33 19 21 20 9 8 6 5 6 6 7 10 9 9 11 10 7 5 6 3 3 6 6 3 4 5 18 11 13 12 10 9 6 5 7 9 11 14 18 21 23 22 21 21
29 12 10 10 9 6 8 11 5 5 8 13 14 5 11 7 5 4 3 5 6 5 3 5 6 9 9 19 14 11 9 6 3 1 4 8 11 14 17 19 20 22 23 20
13 12 8 7 6 8 6 5 6 12 11 27 24 10 7 6 5 4 5 4 3 4 4 7 4 20 21 18 12 10 7 5 1 4 7 11 14 16 18 20 21 22 22 18
10 10 9 11 13 8 8 15 12 7 25 32 15 7 4 3 4 5 3 5 6 7 6 4 10 15 18 23 17 12 8 2 5 8 9 10 13 15 16 19 21 21 20 20
12 11 6 6 9 7 14 22 16 23 32 23 5 4 4 5 4 5 10 6 8 4 4 19 13 15 20 18 15 14 6 6 9 11 12 11 11 14 15 18 21 21 19 19
10 8 29 22 9 19 22 25 29 35 31 4 5 8 9 3 4 5 6 6 4 9 13 15 15 24 17 14 16 16 8 8 11 14 15 13 13 13 16 19 21 22 22 22

GFSNW_850_spd_144.txt.gz
Wind_Speed
14 15 16 17 15 12 3 4 2 7 4 3 3 2 3 2 3 2 1 1 1 1 1 2 1 2 4 3 2 2 0 3 5 2 4 2 2 2 2 3 1 4 3 3
16 14 15 17 15 14 4 3 3 8 3 2 2 2 1 1 3 2 2 1 2 1 2 2 3 3 1 5 3 1 2 2 6 4 3 2 4 4 5 5 4 6 3 2
16 15 14 16 15 14 5 3 2 5 7 6 2 2 2 2 1 2 2 1 2 2 3 3 2 3 2 4 4 3 3 3 7 5 8 4 9 8 6 6 4 5 7 8
15 15 13 14 13 12 4 3 2 2 2 4 3 1 0 1 2 2 3 3 4 2 2 3 4 3 2 2 2 2 2 4 6 14 19 17 18 19 13 12 12 7 1 8
14 14 14 12 12 10 6 2 3 3 3 2 1 1 2 2 1 2 2 4 3 5 5 5 5 2 3 3 3 2 1 4 7 10 3 3 12 15 15 16 15 15 19 18
13 12 12 12 10 9 4 3 2 3 2 2 2 2 3 3 2 3 4 3 3 7 10 10 12 11 11 6 4 4 3 3 6 5 7 15 7 9 10 6 8 9 9 6
12 12 11 11 10 7 5 4 1 1 2 3 3 5 5 5 6 3 2 4 3 3 8 15 10 10 10 12 12 10 4 3 3 7 12 3 3 1 1 8 13 12 14 14
12 12 11 10 10 8 5 5 3 1 2 4 5 8 6 4 6 5 6 8 8 10 8 4 4 2 3 3 2 9 12 5 4 4 5 12 3 1 3 4 6 3 8 8
14 12 11 9 9 9 7 5 4 4 3 4 2 4 6 3 3 3 3 4 3 1 2 2 3 2 2 2 4 5 6 8 3 2 4 4 2 2 3 2 4 2 5 6
15 13 12 11 8 9 9 7 6 4 5 5 7 5 3 6 3 2 1 2 2 3 2 2 2 2 1 2 3 4 4 4 9 8 6 10 8 3 3 3 2 3 5 8
16 14 13 13 11 9 8 9 8 7 6 13 11 11 9 6 5 3 5 2 3 3 4 3 2 3 1 3 3 5 8 8 5 6 6 8 10 6 5 2 2 5 7 10
19 16 15 14 13 11 10 9 9 10 11 11 14 15 16 19 13 7 7 1 3 5 2 2 1 4 3 3 3 3 4 7 3 9 6 4 12 13 11 11 11 13 12 12
20 18 17 16 15 13 11 11 9 10 11 16 11 7 12 21 23 18 6 7 8 6 6 2 1 6 3 4 6 3 7 9 5 3 7 20 26 22 24 22 22 22 21 18
21 21 19 18 15 14 14 13 11 9 5 5 5 5 6 7 13 20 24 17 8 7 8 5 3 4 9 4 4 5 6 10 8 12 23 25 26 14 9 9 10 12 11 17
21 22 21 19 17 16 15 15 15 15 7 5 9 17 19 16 13 14 19 23 17 8 5 5 4 4 3 4 3 10 13 10 8 8 12 9 7 13 11 18 22 20 20 18
21 22 21 20 20 19 12 6 10 19 16 3 4 6 6 6 11 14 12 15 15 10 6 5 6 6 5 4 5 13 22 22 27 7 6 10 18 26 25 21 19 20 18 17
23 21 21 22 23 24 17 6 4 6 14 4 7 4 4 7 8 8 11 13 8 8 5 6 5 6 9 4 6 9 20 29 31 28 20 19 22 16 19 24 26 24 24 23
21 19 20 22 22 26 27 24 12 11 11 6 3 3 4 11 6 5 8 6 9 8 6 4 6 5 8 7 24 22 18 17 20 25 22 23 21 23 23 18 18 21 25 26
17 13 18 21 27 19 24 22 21 21 15 6 6 3 2 13 6 5 7 6 4 5 6 6 8 5 9 15 21 20 21 19 13 19 15 18 19 18 16 16 15 19 23 24
15 24 15 8 10 23 13 10 11 22 14 11 8 9 5 14 8 7 7 5 3 3 5 5 5 7 34 29 32 31 21 22 23 19 15 11 10 12 13 14 14 16 18 21
31 15 10 9 18 16 9 8 10 11 6 10 12 29 7 13 5 5 9 3 3 3 3 5 4 5 8 24 32 36 40 37 27 28 25 20 16 13 11 11 13 15 17 19
29 17 20 23 9 7 5 5 5 6 6 9 8 8 14 9 7 4 7 4 4 6 8 3 5 6 24 17 9 13 15 18 21 21 17 12 11 6 7 9 11 14 17 19
25 11 11 10 9 6 9 11 5 5 7 14 12 5 12 7 7 3 4 6 6 5 4 5 6 10 9 12 15 15 16 16 17 16 13 10 7 7 9 11 12 15 17 19
12 11 7 7 7 8 7 6 8 11 13 25 24 8 6 6 6 4 5 5 4 5 5 8 5 21 19 19 24 20 20 19 18 16 13 10 9 11 11 14 14 16 18 19
10 9 7 10 15 7 8 17 13 14 24 32 15 7 5 3 4 4 3 5 7 7 6 4 7 8 13 19 27 25 21 20 20 17 16 14 13 14 13 12 14 17 19 22
9 9 5 8 6 8 11 23 15 21 29 23 7 4 4 6 4 7 11 6 10 5 5 16 11 12 11 16 29 27 25 25 21 16 15 14 15 16 15 13 14 15 17 19
7 8 25 18 9 16 20 29 25 33 33 5 5 9 11 4 5 6 6 8 3 10 17 15 10 15 16 18 27 30 29 27 21 17 15 14 15 18 20 21 19 20 21 23

GFSNW_850_spd_147.txt.gz
Wind_Speed
17 16 16 16 15 9 2 2 1 5 3 1 1 3 2 2 6 4 3 3 3 2 2 2 1 2 3 1 1 3 2 3 5 2 3 2 2 3 2 2 1 4 4 5
16 16 16 17 16 12 2 2 2 7 4 1 3 4 4 1 4 3 2 2 3 1 3 3 3 2 1 3 2 3 2 2 5 5 3 2 4 4 7 6 5 10 4 4
17 16 14 15 15 14 4 1 2 4 4 2 2 3 3 3 3 3 2 3 3 4 4 4 3 3 1 3 3 1 2 4 7 7 9 9 13 12 9 9 4 5 10 14
16 16 16 14 14 13 6 4 2 1 1 3 2 1 1 3 3 4 4 3 7 4 3 4 4 3 4 4 2 3 3 6 10 15 19 19 19 18 16 16 17 7 3 7
14 16 15 15 13 12 7 3 3 2 1 0 2 2 4 4 2 3 4 5 2 5 5 5 6 4 5 5 4 2 2 5 13 14 9 7 13 15 16 17 19 22 24 24
10 13 14 13 12 10 4 5 4 2 2 1 3 1 2 4 2 4 7 5 5 8 9 10 10 11 12 12 7 5 4 5 9 5 7 16 14 10 16 13 11 16 15 14
11 10 12 12 11 9 6 4 3 2 1 4 3 2 4 5 8 5 3 5 6 1 4 12 14 12 15 15 15 14 7 6 5 7 13 4 3 1 1 8 13 14 16 16
17 11 11 11 10 8 6 5 2 2 4 4 8 8 6 5 7 7 10 9 8 7 7 4 4 4 4 4 3 9 12 8 5 4 6 13 6 2 5 5 6 4 7 8
17 14 12 10 10 9 7 6 3 1 5 2 4 3 5 5 5 3 5 4 5 2 4 3 3 2 2 3 5 2 6 9 5 3 5 4 3 5 3 1 6 7 3 4
20 15 14 12 10 9 8 7 6 3 5 7 6 6 3 3 3 3 1 3 4 5 3 3 3 2 1 3 4 6 4 4 11 10 7 10 9 8 5 3 3 5 4 5
22 18 16 14 13 10 10 10 9 6 6 11 12 12 8 5 5 3 2 2 4 5 4 3 3 3 2 3 6 5 10 7 6 7 7 9 12 8 6 3 1 5 11 13
23 19 18 17 15 12 11 11 9 10 11 11 20 17 17 19 11 5 6 4 2 4 4 3 2 4 3 4 4 6 6 9 3 10 6 4 15 16 12 10 12 18 20 22
22 19 20 19 18 16 14 12 11 11 9 15 11 7 9 19 26 21 8 6 6 3 4 4 3 7 3 4 6 5 9 17 6 3 8 20 28 29 23 22 22 17 12 14
21 20 20 21 19 18 17 15 11 10 6 6 5 8 7 7 11 22 25 15 7 7 4 5 4 4 8 4 7 9 7 11 10 15 22 28 31 27 25 18 12 12 13 13
21 20 20 21 19 19 20 19 16 14 9 5 9 16 23 20 17 15 21 25 14 9 6 7 5 6 3 9 7 13 18 12 12 8 13 17 11 4 7 11 12 16 18 20
20 19 21 22 20 19 19 9 15 25 17 4 4 7 10 10 9 13 13 14 13 13 7 8 10 11 5 5 6 10 21 33 31 14 11 11 10 11 14 18 18 15 17 16
21 20 21 22 23 24 24 7 3 5 19 5 6 5 5 8 9 8 8 11 7 10 7 9 12 9 9 4 10 8 18 29 32 32 23 18 19 12 9 14 17 19 20 21
20 19 19 19 24 25 30 30 19 12 13 7 3 2 2 9 5 5 8 7 8 9 8 6 6 7 7 7 18 32 39 25 23 27 28 26 17 20 22 19 18 17 16 15
19 16 13 18 29 27 28 25 23 19 13 5 7 3 1 11 5 5 6 5 4 6 6 6 9 6 8 17 16 24 23 20 16 20 27 24 23 23 22 19 17 17 14 12
15 16 12 9 11 22 16 8 9 17 12 13 7 8 5 16 11 7 6 5 3 4 6 6 6 8 36 51 36 26 19 22 24 16 20 25 25 24 19 16 15 14 15 14
24 14 9 9 13 15 9 8 9 10 5 9 11 25 8 8 4 4 10 3 3 4 3 5 4 5 12 32 36 39 41 38 32 33 26 26 18 16 16 17 15 12 11 11
17 10 16 21 9 7 6 5 6 6 6 11 9 8 15 8 7 5 9 4 4 7 7 3 5 6 25 21 22 17 16 23 35 33 34 34 28 22 22 18 14 10 10 11
21 9 10 10 9 7 8 11 6 6 8 14 14 5 11 8 8 3 4 7 7 2 4 5 6 16 20 14 15 12 11 14 23 31 33 36 33 24 22 17 13 12 12 13
10 10 6 7 7 9 7 5 5 9 10 23 23 9 7 7 6 4 5 4 2 4 5 9 5 23 18 12 17 13 15 16 17 20 20 22 23 20 19 16 14 15 14 14
9 8 7 10 14 6 2 10 7 7 19 30 14 5 6 4 4 5 4 5 7 8 7 4 11 8 10 17 16 12 20 23 25 24 25 24 22 20 18 17 17 19 18 18
7 8 6 11 3 7 8 9 6 11 20 15 6 4 4 6 5 8 11 6 9 6 4 22 17 17 13 10 7 12 18 28 31 30 29 27 25 22 19 19 20 23 22 21
7 10 20 22 11 11 12 17 17 23 24 5 5 7 13 4 5 6 7 7 10 7 15 15 15 21 19 15 15 18 19 28 35 34 32 30 25 23 23 22 20 23 25 27